GFSWCAN_sfc_dewp_000.txt.gz
Dewpoint
43 44 42 43 43 42 42 43 43 43 44 44 44 44 43 44 44 40 38 43 38 35 34 34 34 36 37 41 47 49 43 38 35 30 27 25 26 29 37 40 40 38 38 34 36 35 33 42 40 38 56 56 57 60
44 44 42 42 42 42 43 44 44 44 42 42 44 44 44 43 44 42 37 38 38 36 34 36 35 34 32 38 38 48 46 47 42 38 36 37 37 39 46 35 43 43 45 42 48 48 55 56 57 58 57 57 59 60
45 45 42 43 42 43 42 42 42 42 43 43 43 43 43 43 43 41 36 39 39 36 33 31 28 34 33 33 32 34 43 52 53 47 40 40 43 44 45 45 48 51 54 52 48 48 56 54 56 56 56 56 58 57
42 42 42 42 42 42 43 42 42 42 42 42 42 42 43 43 43 42 37 38 39 35 31 28 32 34 34 35 37 37 38 42 46 41 38 37 37 43 40 44 42 46 49 47 49 55 55 56 53 56 56 56 55 55
42 42 43 42 42 42 42 42 42 41 41 42 42 42 42 43 44 42 39 39 41 37 34 33 34 32 32 36 36 38 40 43 38 35 35 34 37 40 40 39 37 41 44 47 42 57 58 57 58 56 56 55 55 54
42 42 41 42 42 42 42 42 42 42 42 43 43 43 43 43 43 40 40 41 41 40 37 32 35 36 37 36 37 38 38 40 38 36 37 37 41 41 35 34 42 50 53 57 54 56 59 58 60 60 54 54 53 55
42 42 42 42 43 42 43 44 44 43 44 44 44 45 45 44 41 40 41 43 45 43 37 35 33 34 34 35 34 34 39 36 36 35 37 36 39 41 34 32 38 44 47 50 54 51 53 51 55 58 55 54 54 54
42 41 41 42 42 42 43 43 44 45 45 45 46 47 46 45 44 40 42 45 45 41 40 36 36 36 37 37 33 32 32 35 35 33 35 37 38 40 35 38 38 41 44 45 45 52 53 50 56 55 55 53 53 53
41 41 41 42 42 42 43 43 44 45 46 46 45 45 46 45 45 47 48 47 45 43 40 37 33 39 37 37 40 39 36 29 30 30 30 33 33 39 38 41 41 41 44 43 46 50 54 51 56 55 53 54 53 53
41 41 41 42 42 42 42 43 44 45 45 46 42 43 46 42 49 48 43 44 44 41 40 35 33 32 33 36 39 44 35 31 29 29 28 31 32 38 39 40 44 45 43 43 42 43 46 54 55 53 54 53 53 53
40 41 41 41 41 42 42 43 44 45 44 37 37 38 40 47 40 42 42 41 41 38 37 36 36 38 38 36 38 43 40 36 32 31 27 28 27 35 40 42 46 45 45 45 43 45 46 52 54 53 53 53 53 53
41 41 41 41 41 41 41 42 44 39 33 38 40 40 39 39 41 40 39 38 36 37 39 38 43 43 40 44 44 45 40 38 32 31 29 27 32 39 32 36 41 43 43 44 42 44 44 50 54 53 53 53 53 53
41 41 41 41 40 40 41 42 44 43 43 40 41 39 35 37 35 33 31 33 38 41 42 44 44 43 47 43 44 45 40 35 35 35 30 29 43 37 36 32 39 41 39 40 40 40 42 52 53 54 54 53 53 52
42 41 41 40 39 40 41 43 43 42 40 35 36 33 34 34 32 33 35 38 41 39 40 37 40 45 49 46 43 39 40 41 38 33 33 49 51 51 49 37 39 40 40 37 40 45 52 53 53 53 53 53 51 50
42 41 40 40 41 41 42 42 43 40 36 31 29 30 29 30 31 32 34 35 38 38 37 37 40 47 45 43 44 40 37 36 37 41 47 51 53 52 53 52 52 44 46 50 51 51 53 53 54 53 52 51 50 48
42 40 39 41 40 40 42 41 39 38 34 29 30 26 27 28 30 33 35 35 37 37 37 45 42 40 38 41 40 38 36 38 41 48 52 53 53 54 55 53 52 54 55 55 54 54 54 53 51 51 50 49 50 51
42 36 41 40 40 41 42 39 35 31 29 29 27 24 21 23 32 33 35 35 38 36 42 42 38 38 41 40 38 42 43 44 47 51 53 54 53 54 55 55 55 55 55 55 55 53 52 51 50 50 49 50 51 51
38 39 40 40 40 41 38 37 30 28 29 25 25 24 26 28 32 33 37 39 39 42 44 41 44 40 39 38 40 45 47 44 44 48 53 55 56 56 56 55 55 54 54 53 52 51 49 48 48 48 48 49 49 50
39 41 41 40 40 38 31 30 30 28 26 24 23 23 26 31 38 41 41 44 46 46 44 43 42 40 42 44 43 43 44 46 47 48 51 55 56 55 54 54 54 52 50 50 47 47 48 49 49 49 50 50 49 50
44 42 41 39 39 37 26 31 32 28 27 28 27 29 34 39 42 43 44 45 46 45 42 42 42 45 45 47 48 48 48 50 50 49 51 53 53 52 51 51 51 51 50 50 50 49 50 51 52 51 51 51 51 52
41 39 40 39 37 33 29 28 28 28 28 27 34 38 39 41 42 43 45 48 46 44 43 46 46 47 49 49 49 49 50 52 51 51 51 50 52 51 51 51 50 50 49 49 49 49 49 51 53 54 53 53 53 49
36 40 36 35 33 32 31 30 28 31 31 33 39 40 38 39 41 43 46 44 44 44 46 46 47 48 47 47 48 51 51 52 53 51 49 49 49 49 49 50 50 50 51 51 51 51 51 51 52 53 53 51 53 49
40 38 32 30 29 32 29 33 34 37 35 38 38 37 38 41 43 46 42 42 44 46 46 48 47 48 47 48 49 49 50 51 51 51 51 51 51 51 51 50 51 50 50 51 49 48 47 46 49 49 48 50 48 46
39 33 29 31 32 32 32 34 37 38 38 36 36 37 38 40 44 40 37 38 42 45 46 46 47 47 48 48 48 49 50 51 50 50 50 49 49 49 50 49 50 51 51 51 50 48 49 49 48 50 50 48 46 45
31 33 33 32 34 31 33 36 37 36 35 37 37 38 40 42 38 35 34 37 42 43 45 46 46 46 46 47 48 50 51 50 49 49 50 51 50 50 49 50 50 51 52 51 51 50 51 51 50 50 49 46 42 41
33 31 35 32 36 35 36 35 35 36 37 38 40 42 42 39 36 33 36 39 42 44 45 46 45 46 46 47 48 48 50 52 49 49 50 51 50 49 49 48 49 50 52 50 50 49 50 49 46 43 41 38 36 35
33 35 37 38 38 37 36 37 37 36 39 38 39 38 37 35 34 38 42 44 44 46 48 48 48 37 38 39 42 45 46 46 47 48 50 49 49 49 47 45 45 47 50 48 47 46 45 44 41 38 36 35 35 34
37 36 34 37 37 37 36 38 40 40 39 36 35 36 35 36 37 42 42 47 48 46 44 36 30 29 29 33 35 35 35 36 39 39 37 37 39 40 43 42 42 39 42 41 41 41 40 39 37 36 35 34 35 35
36 38 37 37 39 39 41 40 38 37 36 35 35 35 39 40 41 42 40 38 35 33 31 25 25 26 28 28 28 27 28 29 31 31 31 29 29 30 32 34 35 36 38 39 37 38 39 37 37 36 35 34 35 35
41 40 40 40 39 38 38 38 37 37 36 36 37 38 38 39 39 39 35 30 30 28 27 27 26 25 26 27 28 29 29 30 30 30 30 30 30 31 33 33 33 32 33 33 33 34 36 37 35 35 35 35 36 37
44 40 39 39 39 38 37 36 36 36 36 35 35 33 34 37 37 35 31 31 30 30 31 31 32 33 33 32 31 31 30 32 33 34 33 32 32 34 34 35 35 35 36 35 35 34 35 34 34 33 33 34 35 35
39 37 37 37 38 38 37 35 33 33 34 34 32 35 34 34 35 35 33 32 31 31 35 34 33 33 34 35 36 36 36 35 36 37 38 37 37 37 35 35 35 36 35 33 33 32 33 34 35 35 36 37 37 38
36 35 37 38 38 37 35 35 35 34 34 34 34 34 33 35 36 36 35 36 35 34 34 36 37 37 40 39 38 37 36 37 37 35 36 36 35 35 34 34 35 35 34 35 35 35 36 40 41 42 43 43 43 43

GFSWCAN_sfc_dewp_003.txt.gz
Dewpoint
44 44 44 42 42 42 42 43 45 44 43 43 42 43 43 42 43 40 37 45 39 34 33 33 31 36 36 39 43 44 46 46 43 36 32 32 30 32 34 38 38 36 34 33 38 35 33 57 50 47 57 60 60 59
44 45 45 43 43 43 43 43 42 42 43 43 43 43 43 42 41 41 36 36 37 35 34 36 36 36 34 34 35 47 48 47 51 45 41 41 36 45 45 41 51 46 50 49 46 48 57 58 58 59 61 59 60 60
44 43 42 42 42 42 42 43 43 42 42 42 42 41 42 42 42 41 37 37 38 36 35 35 34 37 35 32 28 33 51 52 51 53 46 42 44 44 45 46 48 50 53 51 49 53 56 57 58 60 61 59 59 59
44 43 42 43 42 42 43 43 42 42 42 42 42 42 41 42 42 42 38 38 39 37 33 34 36 39 38 34 34 34 41 46 47 50 46 38 38 44 42 47 45 46 52 49 48 53 54 54 59 59 60 59 56 56
44 43 43 42 42 42 43 42 43 43 43 43 43 43 42 42 42 42 40 39 41 37 33 33 35 34 33 41 38 39 41 43 41 42 37 41 44 43 43 41 42 48 50 47 47 55 52 57 58 60 58 57 56 55
44 42 43 42 43 43 43 43 44 44 44 44 44 43 44 44 43 41 40 42 41 41 36 33 36 38 39 40 39 41 42 44 43 40 38 40 47 44 39 37 49 51 55 55 52 57 58 59 59 60 57 56 57 56
43 42 42 41 42 43 43 43 44 44 45 45 46 46 47 46 43 40 40 44 46 46 38 34 36 40 39 40 38 39 41 40 41 39 39 40 41 44 39 36 41 45 51 54 54 53 53 55 55 58 55 55 55 55
43 42 42 41 42 43 43 43 44 44 45 45 46 46 47 46 44 40 43 46 45 41 41 36 37 40 45 37 39 39 37 39 42 39 40 38 41 43 38 41 40 45 47 48 51 53 54 53 55 57 55 55 54 54
42 42 42 41 42 43 43 43 43 45 46 46 46 46 45 45 43 45 47 47 46 43 40 39 34 38 41 40 44 43 45 36 39 36 35 38 37 39 41 42 43 44 45 46 48 53 54 51 55 56 55 54 53 53
42 41 42 41 42 42 43 43 44 45 46 46 43 43 44 50 51 49 44 44 45 42 40 35 36 33 37 38 42 46 43 38 34 34 34 32 31 38 42 43 46 46 46 46 45 50 51 50 51 53 55 55 54 53
42 41 41 41 42 42 43 43 44 45 45 41 40 42 44 50 43 43 43 41 42 39 39 37 37 37 42 40 41 44 42 42 35 35 34 34 31 36 39 43 46 49 48 46 48 49 54 50 49 49 54 55 54 54
42 41 41 42 42 42 42 42 44 41 36 39 41 42 41 40 42 40 41 40 37 38 41 39 44 45 44 47 44 46 41 41 34 40 36 32 37 42 44 41 44 48 46 46 48 48 50 53 53 54 55 53 53 54
43 42 41 42 42 41 41 42 43 45 44 42 42 39 38 42 34 34 33 35 40 45 47 45 45 47 49 47 44 45 41 38 41 39 34 43 48 49 51 51 46 43 46 46 45 46 47 55 57 57 55 54 54 54
43 42 42 42 42 41 41 42 44 42 41 39 37 31 34 33 30 32 37 39 43 41 43 41 40 46 48 46 46 38 41 44 39 37 38 47 50 50 51 51 52 50 43 42 43 44 46 54 54 55 54 53 51 49
44 43 42 41 41 42 42 43 44 40 39 36 31 31 30 32 34 32 35 37 40 41 39 39 41 47 46 44 45 42 38 36 40 41 46 50 52 50 51 52 53 52 52 49 44 51 54 55 55 55 54 53 51 47
44 42 41 42 41 42 43 42 39 39 40 32 32 27 31 32 30 33 35 36 40 39 40 47 41 39 38 40 40 37 37 38 41 46 49 51 51 52 52 53 53 49 50 56 55 55 55 53 52 51 50 49 49 48
44 37 44 44 42 43 44 40 41 38 30 30 29 31 28 29 34 34 36 37 42 39 43 42 37 37 41 39 39 45 42 43 45 46 50 51 51 52 53 54 54 55 55 54 54 53 52 51 50 50 50 51 51 52
38 40 41 40 40 42 40 39 36 29 28 28 26 28 30 34 38 42 44 46 45 46 45 41 44 39 38 38 39 44 44 43 45 46 47 50 52 54 55 54 54 53 53 52 51 50 50 50 49 49 50 50 50 50
40 42 42 40 40 39 37 32 33 28 28 28 29 30 32 39 43 43 42 45 47 45 45 43 41 40 41 44 43 43 44 45 46 46 48 51 54 54 53 52 51 51 50 49 48 48 49 49 49 50 50 50 50 50
45 44 41 40 40 40 30 34 38 29 28 31 36 37 39 41 42 43 44 45 46 44 41 41 42 44 43 45 47 47 47 48 48 47 49 50 51 51 50 50 50 50 50 49 49 48 49 50 50 50 50 50 50 50
41 39 41 39 37 38 32 31 31 32 32 31 39 39 38 41 42 43 44 47 45 43 41 45 44 45 48 48 48 48 48 51 51 51 49 48 50 50 49 50 50 50 49 49 49 49 48 49 50 51 51 51 52 52
37 41 38 40 36 33 33 35 32 35 34 36 39 40 38 39 41 43 45 42 42 42 44 44 46 46 46 46 48 50 52 51 51 49 48 48 48 48 49 49 49 49 50 50 50 50 50 51 52 52 52 52 51 51
40 40 37 31 30 32 29 35 35 39 36 38 38 37 38 40 42 45 39 39 41 45 46 47 47 48 47 49 50 50 51 51 50 50 50 50 50 50 51 51 51 50 48 48 48 48 49 48 49 52 52 52 50 48
39 35 32 33 33 32 33 38 39 38 37 36 36 37 38 40 41 37 34 36 40 45 46 46 46 47 48 48 48 49 50 51 50 50 50 49 48 48 50 50 51 51 50 48 48 48 49 50 48 49 49 47 45 45
28 29 33 31 34 34 35 36 36 36 34 37 37 38 39 41 35 34 33 36 41 43 45 46 47 48 47 48 49 50 51 50 49 48 50 50 49 49 49 50 50 51 52 50 49 50 50 50 50 47 43 41 41 42
32 34 34 33 36 35 36 34 34 35 37 39 40 42 41 37 34 33 35 39 41 44 46 46 46 47 47 48 48 49 50 51 49 49 50 51 50 49 48 48 48 49 51 51 50 49 50 48 45 43 41 38 36 36
34 36 39 39 38 37 35 37 37 36 38 39 39 38 37 34 33 37 42 44 45 47 49 46 46 42 45 48 50 50 51 50 49 49 50 50 50 51 50 48 48 50 51 50 49 48 46 45 43 40 38 38 38 37
37 36 34 36 36 37 36 38 40 39 40 37 37 37 36 34 36 42 45 48 47 45 44 41 34 36 38 41 42 45 47 48 50 50 48 46 45 46 46 45 44 40 43 45 48 47 45 43 41 39 39 38 39 38
35 37 37 37 39 40 42 41 39 38 38 36 35 34 37 38 39 41 41 41 41 38 36 29 32 32 33 35 36 34 34 34 36 36 35 34 35 38 41 42 43 43 40 38 37 38 39 38 39 38 40 39 40 41
41 41 40 39 39 39 39 40 38 38 39 39 40 40 39 40 41 42 41 40 38 33 32 31 30 29 30 30 31 32 32 33 34 34 34 34 33 34 36 37 38 36 36 37 37 36 36 35 38 37 37 40 40 39
46 39 37 38 37 36 36 37 37 37 37 37 37 36 35 37 37 39 39 38 35 34 34 34 34 35 36 36 35 34 34 37 40 40 37 36 36 39 40 42 41 42 41 40 39 38 38 38 39 40 40 41 41 43
40 39 38 37 37 37 38 37 36 35 36 36 35 35 36 36 35 36 38 38 36 36 37 36 37 36 37 37 37 37 35 37 39 39 40 39 39 40 37 38 37 39 38 37 38 41 42 43 43 43 44 44 43 42
37 37 38 37 36 37 38 38 38 35 34 34 34 35 37 37 36 39 41 41 40 38 39 40 39 40 46 42 40 39 37 39 38 36 36 35 35 37 38 38 40 40 39 40 40 41 43 43 43 43 41 40 39 38

GFSWCAN_sfc_dewp_006.txt.gz
Dewpoint
45 45 45 45 43 43 43 43 43 43 43 43 42 42 43 43 42 39 37 38 36 33 33 33 31 33 34 35 38 39 43 44 46 40 30 29 28 29 30 39 41 32 31 34 37 36 33 57 56 49 53 59 57 57
44 45 44 44 43 43 43 43 43 42 42 42 42 42 41 41 42 41 36 37 37 34 32 35 34 34 34 34 32 38 43 43 49 43 43 41 41 42 42 40 47 42 45 44 41 41 55 57 59 59 61 59 59 58
45 43 43 43 43 43 42 43 43 42 42 41 41 41 41 41 41 40 37 38 36 35 35 35 34 34 36 34 33 29 49 50 49 47 45 43 39 43 40 43 43 47 50 47 47 51 54 57 58 60 60 59 60 60
45 44 44 42 43 42 43 43 43 43 44 43 42 42 42 41 41 41 37 38 37 35 32 33 35 33 35 35 34 30 42 48 48 50 45 41 37 41 40 43 42 45 49 46 48 51 53 56 58 54 58 60 60 58
44 44 44 43 43 43 43 44 44 44 44 43 43 44 44 44 44 41 40 40 39 36 32 34 35 35 35 34 33 32 37 39 44 45 44 40 43 42 40 39 42 45 45 46 46 52 52 53 57 59 57 57 57 57
44 45 44 43 42 43 44 43 43 44 44 44 44 45 45 45 44 40 38 41 40 40 37 32 36 35 35 36 35 34 36 38 41 43 46 45 45 43 37 36 49 52 52 52 51 57 57 58 58 59 58 57 57 56
44 44 43 43 42 42 44 43 44 44 44 44 45 46 46 47 42 39 39 43 45 43 39 33 34 38 41 37 36 36 37 37 39 38 38 37 42 42 37 34 40 49 51 52 52 54 53 55 55 58 56 55 56 55
44 43 42 42 42 42 43 43 43 44 44 45 46 46 47 48 44 39 40 45 44 42 40 35 35 40 44 43 39 37 34 37 37 37 38 36 39 41 36 37 37 43 51 52 52 52 52 52 56 56 55 55 54 54
44 43 42 42 42 42 43 43 43 44 45 45 46 46 44 42 40 43 48 47 42 42 40 39 35 37 43 39 45 46 44 37 37 34 34 36 35 35 38 37 39 41 42 43 46 51 53 50 52 55 54 54 54 53
44 43 42 42 42 42 43 43 43 45 45 46 43 42 43 45 51 48 43 43 44 42 42 35 36 33 37 38 38 41 42 39 32 34 34 32 32 34 39 38 37 38 41 44 47 49 50 50 54 54 53 53 54 54
44 43 42 41 42 42 43 43 43 45 44 39 38 42 40 51 43 43 40 39 38 40 39 38 35 36 41 38 39 40 38 40 34 33 31 32 30 32 35 39 40 42 43 41 45 47 51 49 53 53 54 54 54 54
45 43 42 41 42 42 42 42 43 41 38 39 39 41 41 41 40 38 37 37 37 36 40 37 41 41 42 44 41 41 38 39 32 38 35 31 43 47 49 50 50 44 44 43 44 46 48 51 51 53 54 54 54 54
45 43 42 42 42 42 42 42 43 44 44 41 39 36 37 37 27 34 32 37 39 44 44 43 42 43 43 44 42 41 38 37 41 36 35 42 45 48 49 50 50 50 48 44 43 47 52 53 54 55 55 54 55 54
45 44 43 42 42 42 42 42 43 43 39 38 34 20 28 27 30 35 39 39 43 42 42 40 39 40 43 41 42 38 38 41 37 36 41 45 47 48 48 50 50 50 49 44 42 41 53 54 55 56 56 55 54 52
45 44 43 42 42 42 42 43 44 41 38 37 36 24 32 33 34 34 35 36 39 39 38 37 40 41 40 40 42 40 38 38 39 37 42 47 49 48 49 50 50 50 48 51 42 42 53 55 55 55 54 53 51 50
45 43 42 43 43 42 44 43 40 40 39 37 31 28 30 33 34 34 35 35 39 38 40 42 38 37 38 40 39 38 37 38 41 45 46 47 47 48 49 50 51 50 53 53 53 54 55 55 54 52 52 49 47 48
44 38 44 44 44 44 44 39 40 38 36 31 30 32 31 30 35 34 39 41 43 39 38 38 34 35 41 38 38 43 40 43 44 44 44 44 45 48 50 52 53 53 51 51 51 51 51 52 52 51 51 52 53 53
39 41 44 43 42 41 40 39 38 34 28 30 29 28 32 41 41 41 42 45 44 43 43 39 41 39 37 36 37 43 43 42 43 44 45 47 48 49 54 53 53 52 51 50 50 50 50 50 50 49 50 51 52 52
42 42 44 42 41 38 38 38 37 29 29 29 31 36 40 41 41 42 41 43 43 43 42 42 40 39 40 43 41 42 43 44 45 46 47 49 52 52 52 51 50 49 49 49 49 49 49 50 50 50 51 51 51 52
45 44 42 40 40 38 36 31 35 29 28 31 39 38 39 38 40 43 45 46 46 44 41 40 41 42 42 44 46 46 46 47 47 46 48 48 50 50 50 49 49 49 49 49 49 48 50 50 50 50 51 50 50 50
41 41 41 39 38 38 35 30 32 34 33 37 38 37 37 41 42 43 43 45 44 41 39 43 43 44 47 48 48 48 48 50 49 49 47 47 49 49 49 50 50 50 49 49 49 48 49 49 50 51 51 51 51 51
39 42 38 39 38 35 32 34 33 36 35 37 37 40 39 39 40 41 44 39 40 40 43 43 44 46 46 46 47 49 50 50 50 49 48 48 48 49 49 50 50 49 50 50 50 49 50 50 51 51 50 51 51 52
41 40 38 37 32 27 23 35 33 39 35 37 38 38 38 40 40 42 37 38 39 43 43 46 47 48 48 49 51 51 51 50 49 49 50 50 50 50 50 50 49 48 48 49 49 50 50 49 50 52 52 52 50 50
40 34 34 35 32 26 33 37 39 37 37 36 36 36 37 39 40 36 34 37 40 44 46 47 48 48 49 49 48 49 50 50 49 49 50 49 49 49 50 50 50 49 48 48 48 48 49 49 48 48 47 46 44 44
21 17 30 22 33 34 35 35 35 35 33 36 37 36 37 39 34 33 32 36 40 42 45 48 48 48 47 48 49 50 51 50 49 48 49 50 49 50 50 50 50 51 51 49 49 48 47 46 45 42 38 37 38 38
23 31 33 34 35 34 35 33 34 35 37 38 39 40 39 37 34 32 35 39 40 42 44 46 47 48 48 49 48 49 50 51 50 49 50 50 50 48 48 47 46 48 50 50 48 47 47 44 41 38 35 35 36 35
33 34 38 40 38 37 35 36 37 36 37 38 39 37 36 33 33 37 41 43 42 44 47 47 47 48 49 49 50 51 51 50 48 49 50 49 49 49 49 48 47 49 50 50 48 46 44 41 39 37 37 35 35 35
36 36 33 36 36 37 35 37 39 38 39 38 38 36 34 35 35 41 43 44 45 44 43 43 42 44 46 47 48 48 48 49 49 48 44 43 44 43 42 41 41 41 44 45 44 45 42 40 38 37 37 36 35 35
35 37 37 37 39 39 40 40 39 39 37 36 37 36 36 37 39 41 41 41 42 41 41 31 32 35 37 40 42 46 48 47 38 36 37 37 38 40 42 42 40 36 35 36 35 35 34 34 35 35 36 37 39 40
41 40 39 39 38 38 39 39 38 40 40 40 40 40 39 39 40 41 41 41 35 32 31 31 31 31 31 32 33 36 38 38 36 35 34 33 34 36 37 38 37 33 34 34 32 31 33 32 35 35 36 40 43 43
45 42 38 37 37 38 38 38 39 39 39 37 38 36 36 38 39 41 41 39 36 35 35 35 35 35 35 36 37 36 36 37 37 38 37 37 38 39 38 38 38 38 37 37 39 39 42 43 43 43 43 41 40 39
41 39 38 36 36 38 38 37 36 36 37 37 36 36 35 35 35 37 41 39 37 37 39 37 35 35 36 36 36 37 37 37 38 38 37 38 38 38 38 39 40 41 41 41 42 43 44 43 43 41 40 38 38 38
40 39 38 37 38 38 39 38 37 36 36 36 37 37 37 37 37 40 42 42 41 41 41 41 41 41 37 37 37 37 37 35 35 35 36 36 36 37 38 39 41 42 43 43 42 42 41 40 38 38 38 37 37 35

GFSWCAN_sfc_dewp_009.txt.gz
Dewpoint
45 44 44 45 45 43 44 43 43 44 43 41 42 42 41 41 42 39 37 37 35 32 33 33 32 30 31 35 35 36 41 41 46 41 34 29 28 29 32 43 40 31 30 32 37 36 34 55 54 42 51 58 55 56
45 45 44 43 43 43 43 42 44 43 41 41 41 41 41 41 40 40 35 37 37 33 30 34 34 34 34 34 32 32 40 41 46 40 41 41 40 41 40 39 45 41 43 40 39 41 53 57 59 58 59 58 57 57
46 45 45 44 43 43 43 42 43 43 44 44 43 42 42 41 41 39 36 36 36 33 34 34 33 34 36 33 33 27 43 46 45 46 44 42 36 42 39 41 41 45 48 48 45 50 54 56 57 58 59 59 59 59
45 45 45 44 43 43 43 43 44 44 45 44 42 42 42 42 43 40 36 37 36 34 33 32 36 34 36 36 33 30 38 44 46 47 45 41 36 40 39 41 41 43 47 46 46 50 53 55 55 55 59 59 59 57
45 45 44 45 43 43 43 44 43 43 43 43 43 44 44 44 44 41 39 39 39 35 31 33 35 36 36 35 34 33 33 39 42 42 43 42 41 41 41 39 41 44 44 45 45 50 50 52 56 58 57 57 57 56
46 45 45 45 43 43 43 43 44 43 43 44 44 45 45 46 45 39 37 40 40 39 37 31 35 36 36 36 34 32 33 38 41 41 43 44 47 44 41 35 45 49 51 50 50 54 54 54 57 58 56 57 57 56
45 45 44 44 43 42 42 43 44 43 44 44 45 45 46 47 40 39 37 42 44 42 39 33 32 36 40 40 36 34 37 37 38 39 39 39 46 47 42 38 41 48 52 52 54 55 53 55 53 57 57 56 56 56
45 45 44 43 42 42 42 43 43 43 44 44 45 46 47 48 44 38 39 44 44 40 40 34 34 38 43 39 39 38 34 36 36 37 38 37 40 43 39 39 38 38 46 52 52 52 51 50 53 55 55 55 54 53
45 45 44 43 42 42 42 43 43 44 44 44 45 46 44 41 38 40 48 46 42 41 38 38 35 36 40 38 43 46 42 34 36 35 34 35 35 36 39 37 37 41 49 46 48 50 52 51 54 54 54 55 53 53
45 45 44 43 42 42 42 43 43 44 45 46 43 41 43 43 49 46 42 42 43 43 41 34 36 34 36 38 37 39 41 38 36 37 35 32 32 34 46 43 37 39 45 41 45 46 49 50 52 53 53 54 54 54
45 45 44 43 42 42 42 43 43 44 40 38 36 39 39 46 42 42 40 39 39 40 38 37 36 34 39 37 37 39 38 40 37 37 31 31 36 45 47 49 49 49 43 41 45 44 50 50 51 53 53 54 54 54
45 45 44 43 42 42 42 43 43 39 37 38 38 41 39 39 40 37 37 38 37 36 40 38 39 39 41 43 40 39 37 38 33 40 39 36 45 46 47 48 49 50 50 48 43 45 48 50 50 53 54 53 54 54
45 45 44 43 42 42 42 43 43 44 43 40 37 34 36 36 27 33 34 37 39 44 45 44 41 41 42 43 40 39 37 37 42 38 38 43 46 46 47 48 49 50 50 49 46 45 48 50 53 54 54 54 55 54
46 45 44 43 42 42 42 43 43 43 38 36 32 19 27 25 30 33 37 37 42 44 43 40 39 39 41 38 41 39 38 40 36 36 38 43 43 45 47 48 49 49 50 48 49 46 51 51 52 55 55 54 54 54
46 45 44 43 43 42 42 43 43 39 37 35 36 24 30 32 34 35 36 36 38 39 37 37 39 39 39 38 40 40 37 37 39 37 42 47 46 46 46 47 48 49 50 50 50 45 52 53 53 52 53 53 53 53
45 44 42 43 43 43 43 42 39 39 38 37 34 28 30 33 33 35 35 36 39 38 40 39 34 34 36 39 38 37 37 37 41 44 46 46 44 45 45 47 49 51 50 51 48 53 54 54 52 51 51 52 52 51
43 38 42 44 44 44 44 38 39 37 36 32 30 32 30 30 31 35 38 41 42 39 36 36 30 34 40 37 36 42 40 42 43 43 45 45 46 47 47 49 53 51 50 51 52 52 52 52 52 51 51 52 52 52
38 39 44 45 42 40 39 39 37 36 30 29 28 28 33 40 39 39 40 41 41 42 42 37 40 37 35 35 37 41 40 42 43 44 45 46 48 48 50 52 51 50 49 50 51 51 52 51 51 51 52 52 52 52
40 41 43 43 40 38 37 39 38 29 29 29 32 37 39 39 39 40 41 43 43 41 39 40 38 38 40 42 41 42 43 44 44 46 46 48 50 50 51 50 50 50 49 49 50 50 50 51 51 52 52 52 51 52
45 44 43 40 40 37 36 30 34 28 27 30 37 36 36 37 41 42 45 45 45 44 41 40 41 41 42 43 45 45 46 46 46 45 47 48 50 50 49 49 49 50 50 50 50 48 50 50 51 51 52 52 51 51
40 39 40 38 38 37 36 28 28 32 33 35 36 37 36 41 42 42 42 43 43 40 39 41 42 43 45 46 47 47 47 49 48 48 47 47 49 50 49 50 50 50 49 49 49 48 49 50 51 51 51 51 52 52
38 42 38 38 36 33 30 32 32 35 35 35 36 40 39 39 39 40 42 39 39 40 42 43 43 44 45 46 47 50 50 50 50 49 48 48 48 49 49 50 49 49 49 49 49 49 49 50 51 51 51 51 51 51
41 39 37 36 31 23 22 35 33 36 32 36 38 37 38 38 39 41 37 38 39 42 43 43 44 46 47 50 50 50 50 49 49 49 50 50 50 49 49 49 50 48 48 49 49 49 50 48 50 51 51 52 51 51
40 33 32 33 31 25 33 37 38 37 37 36 36 35 36 37 40 37 34 37 41 44 46 48 49 48 49 49 48 49 49 50 49 49 50 49 48 49 49 49 49 49 49 49 49 49 49 48 46 47 47 45 44 44
17 19 29 20 34 34 34 35 35 35 33 36 36 35 36 39 34 33 32 37 41 43 46 48 49 48 47 48 49 49 50 50 49 48 49 49 49 49 49 50 50 50 50 46 44 42 42 42 42 40 38 36 35 37
22 32 33 33 33 34 34 33 33 35 37 37 37 39 39 37 34 32 36 40 41 42 44 46 48 48 48 49 48 49 50 51 50 49 49 50 49 48 47 47 47 48 50 48 46 43 42 38 35 35 35 35 35 35
33 34 38 40 38 37 36 36 37 36 37 37 38 37 36 33 33 36 41 43 43 44 46 47 48 49 49 49 50 51 51 50 49 49 49 49 49 49 48 47 47 49 50 48 45 43 40 39 37 36 35 35 34 35
36 36 34 36 36 37 35 37 38 38 39 38 39 36 33 32 32 39 42 43 44 44 42 42 44 46 47 47 48 48 48 48 44 43 42 41 42 43 45 46 47 44 46 45 45 44 39 38 37 37 37 35 36 37
35 38 37 36 38 38 40 39 38 38 38 37 37 36 35 37 38 39 40 41 41 40 37 38 40 43 44 43 45 46 45 38 39 38 38 38 39 40 41 39 38 37 37 36 35 36 36 35 36 36 39 43 44 43
41 39 38 37 37 37 38 40 38 39 39 39 39 39 38 38 39 40 40 36 31 31 32 32 32 34 34 36 36 37 38 37 37 37 36 36 37 38 40 39 34 32 33 33 32 34 36 36 41 43 42 41 41 41
44 42 38 38 39 41 40 38 39 39 38 37 37 35 35 36 38 39 37 36 35 35 34 34 35 36 36 36 35 35 35 36 37 37 37 38 38 38 38 38 37 36 36 40 40 44 44 43 41 40 39 39 39 38
41 38 37 36 36 39 39 37 36 36 37 36 36 36 36 37 36 38 40 37 36 36 37 35 33 33 35 36 37 37 36 36 37 37 37 38 38 38 39 41 42 42 43 44 44 43 41 40 39 38 38 37 37 36
38 37 37 37 38 38 39 37 36 35 37 36 36 36 36 36 35 38 42 42 39 38 38 37 35 35 35 36 37 36 35 36 36 36 36 36 36 38 41 43 44 43 42 42 40 39 38 38 38 37 36 34 33 34

GFSWCAN_sfc_dewp_015.txt.gz
Dewpoint
46 45 45 44 44 44 43 44 43 43 41 42 43 43 43 43 42 39 37 39 35 31 29 32 34 33 33 34 33 35 37 43 43 40 35 32 31 35 39 43 39 34 34 30 36 36 35 55 54 45 55 61 58 58
46 45 45 45 45 44 43 43 43 43 45 44 43 42 43 43 42 39 36 38 38 34 30 34 33 34 32 30 32 34 42 43 49 42 41 41 40 42 45 38 48 41 43 36 38 36 54 57 57 59 60 59 59 60
46 45 46 46 46 44 43 43 43 44 43 43 42 42 41 42 43 41 37 38 37 35 33 31 33 36 36 34 32 29 38 47 49 49 43 43 40 42 44 44 46 49 53 52 51 52 54 57 58 59 60 61 60 61
45 45 44 45 45 44 44 43 43 44 44 42 42 42 42 43 44 44 39 38 37 36 31 29 34 36 37 36 35 32 36 45 49 49 47 41 38 41 39 42 43 45 50 50 51 52 54 55 57 59 60 60 59 60
44 45 45 45 45 45 45 43 43 43 44 44 42 43 42 44 46 43 41 40 39 36 33 33 35 36 37 38 36 35 34 35 33 34 45 43 44 41 42 41 39 46 48 50 48 53 55 54 57 59 59 59 59 59
45 45 45 46 45 44 44 43 42 43 44 44 43 44 44 45 46 41 40 41 40 39 37 31 36 37 37 38 37 37 35 33 32 37 40 41 46 46 44 41 43 47 47 52 52 55 57 58 59 59 58 59 58 58
45 45 45 45 44 44 43 43 42 43 43 44 44 44 45 45 44 40 40 42 42 41 37 33 34 37 39 39 36 34 35 34 34 38 39 36 40 41 44 41 45 47 45 47 53 55 54 55 56 58 58 58 57 57
45 45 46 45 44 43 43 43 43 43 43 44 44 45 45 46 45 41 42 45 43 41 40 35 35 38 42 40 39 39 35 36 39 36 39 36 40 43 36 42 46 47 46 44 47 53 53 55 57 57 58 57 57 56
46 45 46 45 44 43 42 42 43 43 44 44 46 46 46 44 43 43 47 47 44 41 36 35 35 38 38 40 46 48 43 35 38 35 34 36 34 36 40 46 48 49 49 45 45 50 52 53 56 57 57 56 56 56
45 46 46 45 44 43 42 42 43 44 44 43 44 42 43 45 48 47 43 41 39 41 40 37 36 34 36 40 39 43 46 44 40 37 36 33 31 44 46 47 48 49 50 51 46 49 48 47 51 56 56 57 56 56
46 46 46 45 44 43 42 42 43 44 40 38 38 40 39 43 44 42 41 39 39 37 38 38 37 35 39 39 39 42 41 43 38 40 37 36 37 44 45 46 48 48 49 50 52 51 49 46 46 49 54 56 56 56
46 46 45 45 44 43 41 42 43 41 40 41 41 41 41 41 41 38 37 39 37 37 41 38 39 39 40 45 42 44 40 41 34 44 41 35 44 46 46 45 46 48 48 49 50 51 51 51 48 47 51 56 57 57
47 46 45 45 44 42 41 42 43 43 42 43 41 39 37 38 34 31 31 35 38 43 45 44 42 45 46 45 43 42 38 37 42 40 38 43 46 45 47 46 46 47 47 48 49 51 51 52 50 48 52 55 57 57
47 46 46 45 44 42 42 42 42 43 41 38 35 31 33 31 32 33 37 38 42 44 42 39 39 43 45 44 44 37 39 41 37 35 37 43 45 44 47 47 46 47 48 48 49 51 52 52 49 49 52 55 56 57
47 46 45 44 43 43 42 42 42 41 38 37 37 30 29 30 32 33 35 37 39 41 39 39 40 43 43 41 43 41 38 35 38 37 40 45 47 47 47 47 48 48 49 50 50 51 52 51 52 55 56 57 57 57
46 45 43 44 44 43 43 42 40 40 39 38 37 32 31 31 30 32 37 38 42 42 41 43 39 37 34 38 37 36 35 35 39 43 45 45 46 47 47 46 47 49 51 52 50 52 53 54 54 54 55 55 56 56
42 39 44 44 44 44 43 39 39 37 36 35 31 32 31 31 31 35 41 41 43 41 39 40 36 34 37 36 35 40 39 42 42 42 42 47 46 47 48 49 49 51 51 52 52 53 52 53 54 54 53 54 55 55
39 41 43 44 43 41 40 39 37 37 33 31 32 31 37 41 41 41 43 44 44 44 43 40 43 37 34 32 34 42 42 41 42 42 44 46 47 48 50 50 50 51 52 53 53 53 54 53 52 51 52 54 53 54
42 44 46 44 40 40 39 39 39 31 30 33 37 37 40 40 41 42 42 44 45 45 44 43 38 36 37 42 41 41 41 41 44 45 46 48 50 50 50 51 51 51 52 52 53 53 52 53 53 53 53 52 52 52
45 44 43 42 41 40 36 34 37 32 29 35 38 37 39 40 40 43 44 44 43 44 41 40 39 43 43 42 44 44 44 46 46 45 47 48 50 50 50 50 50 51 51 52 52 50 52 52 52 53 52 52 51 51
38 40 40 38 40 38 35 31 31 35 36 37 37 36 37 41 43 41 41 42 42 41 40 42 43 44 46 46 47 46 46 47 47 48 48 47 50 50 50 51 51 51 51 51 50 50 50 51 52 52 52 52 53 52
38 41 39 40 36 32 32 33 34 38 37 37 36 40 39 39 38 39 41 39 39 42 43 44 44 44 44 44 45 50 50 50 50 49 48 48 48 48 49 50 50 49 50 50 50 50 51 52 52 52 52 52 51 52
40 39 38 33 30 32 32 38 36 37 34 37 39 37 38 38 40 42 38 39 40 43 44 44 44 45 45 48 50 50 50 50 49 49 49 49 50 50 50 50 51 50 51 51 50 50 51 48 50 52 52 52 52 50
37 35 32 32 32 32 36 35 37 37 37 36 36 35 37 38 40 37 34 37 41 44 47 48 49 48 49 49 48 49 50 50 50 50 50 49 49 49 50 50 50 50 50 49 49 50 50 50 48 50 50 47 43 39
26 30 33 31 37 34 34 35 35 35 34 37 35 35 37 39 35 34 33 38 42 43 48 49 49 48 47 48 49 49 50 50 49 48 50 49 48 48 47 46 47 48 49 47 46 46 46 47 46 46 44 39 37 37
30 35 35 34 35 34 35 33 34 36 38 37 37 39 39 37 35 32 37 41 42 43 46 48 48 48 48 50 48 49 50 52 48 48 49 50 48 44 43 42 40 40 40 40 39 38 38 37 38 39 38 38 37 37
33 35 39 40 39 38 36 37 38 37 38 37 37 37 36 34 33 37 43 45 44 46 49 51 50 50 49 50 51 50 49 49 48 47 48 48 48 48 44 39 38 40 38 37 36 36 36 37 37 37 37 38 38 38
37 37 34 37 37 37 36 37 38 38 39 41 38 35 34 36 36 42 44 46 47 49 50 50 49 48 47 47 46 44 44 44 45 45 44 44 45 46 45 44 43 39 43 40 39 39 38 38 39 40 41 41 42 43
36 38 38 37 38 39 39 39 38 38 39 37 33 32 33 37 38 39 41 43 47 49 46 45 44 43 43 43 42 41 43 42 41 40 39 38 39 41 41 40 38 37 37 37 37 39 41 41 42 42 43 42 42 42
39 39 39 38 38 38 39 39 35 38 39 39 39 39 38 38 39 41 40 43 43 42 42 42 41 39 39 36 35 37 37 39 39 37 36 35 35 38 37 36 36 36 36 38 40 43 41 42 41 42 41 41 40 38
44 41 39 39 38 38 38 39 40 40 38 37 37 34 35 36 38 39 38 39 39 38 40 41 40 40 37 36 35 34 34 37 39 39 38 37 37 39 40 40 38 38 41 42 41 41 41 41 41 40 39 39 38 36
40 37 35 35 36 39 39 38 36 35 35 33 32 32 34 35 36 38 40 38 37 37 38 38 37 36 38 38 38 38 37 39 40 41 41 41 42 43 43 43 44 44 44 42 42 41 41 41 39 38 37 37 36 35
38 37 37 35 36 38 39 38 36 34 34 32 35 36 37 36 35 40 43 41 39 37 37 37 38 39 41 39 39 39 38 40 38 36 37 38 39 41 43 44 44 43 42 42 41 41 40 39 38 37 36 35 34 33

GFSWCAN_sfc_dewp_021.txt.gz
Dewpoint
48 47 45 46 45 45 45 44 44 43 44 43 43 44 44 44 44 42 34 40 34 28 25 25 27 32 29 30 28 35 32 33 34 31 26 25 25 25 25 31 33 35 32 28 27 26 25 41 44 41 58 59 59 58
48 46 46 46 46 46 46 45 44 44 44 44 43 44 45 44 45 45 35 35 33 28 25 30 28 29 33 36 35 37 35 41 29 28 29 29 28 30 35 28 34 36 34 35 32 29 55 53 57 60 60 60 61 60
47 46 46 46 46 45 46 44 44 44 44 45 42 43 44 44 45 45 39 39 37 33 28 25 28 30 25 26 31 33 29 48 46 48 42 36 36 35 31 32 35 40 39 40 40 40 50 53 56 60 61 61 61 60
47 46 46 45 45 45 45 45 45 44 43 43 44 42 43 44 45 46 40 40 38 35 28 33 34 35 36 30 29 33 37 44 47 41 35 35 33 37 34 36 40 42 48 41 40 52 50 55 57 59 60 61 60 60
46 46 46 45 46 45 45 45 45 44 43 43 44 44 43 44 46 44 43 41 41 37 33 30 32 34 34 36 32 34 36 39 35 33 33 32 31 39 37 34 33 37 44 46 45 53 55 56 58 58 58 59 60 60
46 47 45 45 45 45 46 45 44 44 43 43 43 44 45 45 45 43 39 41 43 41 37 30 35 35 37 37 36 37 36 37 34 31 31 31 41 40 34 33 37 41 46 46 47 52 54 56 57 57 58 58 59 60
45 46 45 45 45 45 45 44 44 43 43 44 44 45 45 45 42 41 41 43 44 43 37 31 29 35 38 39 37 37 40 34 32 30 30 30 32 37 34 32 45 47 45 46 48 49 51 49 51 54 56 57 57 59
46 45 46 45 45 45 45 44 43 43 44 44 45 46 46 46 46 43 44 45 44 40 38 35 34 33 39 33 31 33 32 32 33 30 31 30 30 34 32 35 35 41 45 45 45 46 46 49 50 52 54 55 55 58
46 45 45 45 45 46 45 44 43 43 44 45 44 45 46 44 43 42 47 46 44 42 37 32 30 37 35 38 40 37 33 31 31 31 30 30 30 29 33 36 35 38 42 43 45 45 46 45 51 50 50 52 54 55
47 46 45 46 46 46 45 44 43 43 45 44 43 42 42 43 49 46 46 42 40 39 38 34 33 34 31 35 33 39 36 32 33 33 31 30 30 34 32 36 43 44 43 44 44 43 42 47 49 45 47 50 52 54
47 46 45 46 46 46 45 44 43 44 44 41 40 40 43 48 43 42 39 38 39 37 35 33 33 36 35 38 42 39 43 41 36 38 32 30 29 34 36 39 43 44 45 45 47 47 46 46 49 48 47 46 49 55
47 47 46 46 46 46 45 43 43 42 40 42 42 42 42 41 41 37 37 35 33 34 34 35 34 34 43 41 46 43 33 35 29 36 35 29 48 47 45 45 45 45 43 43 45 46 45 45 46 46 48 46 48 52
48 47 47 47 46 46 44 42 42 43 44 43 41 39 36 39 34 31 30 31 34 35 46 45 43 37 43 41 42 40 35 31 34 32 32 43 46 45 46 45 45 47 45 45 44 45 45 45 45 46 46 44 47 54
47 47 47 47 46 45 43 43 42 43 42 36 35 34 33 31 29 30 35 37 41 42 40 37 37 36 41 44 44 38 35 37 36 32 36 42 46 45 46 45 44 45 46 47 46 46 47 47 46 47 47 46 44 54
47 47 47 46 46 44 43 43 42 42 39 32 29 31 24 30 31 34 34 37 39 38 37 36 36 36 38 38 39 37 35 33 35 40 43 43 48 48 47 47 46 46 46 47 48 48 48 49 51 52 51 47 46 49
47 47 43 46 45 43 43 42 40 39 38 35 34 31 31 30 30 31 32 38 37 37 37 37 36 36 33 34 33 33 30 32 41 43 42 44 46 47 48 48 49 48 49 49 50 50 52 52 53 55 51 51 50 54
46 38 46 46 44 44 43 40 35 37 36 34 31 31 31 33 33 35 45 45 38 36 35 35 35 33 34 32 31 32 36 43 40 40 41 48 48 48 49 50 49 49 50 51 52 53 54 57 58 58 57 58 58 58
41 44 46 46 44 40 37 40 38 35 34 33 31 34 35 38 41 45 44 40 37 37 37 33 38 36 32 30 30 38 39 39 41 42 44 47 48 49 50 50 50 51 51 52 53 55 56 56 55 56 57 57 56 55
40 42 45 45 43 40 35 37 38 33 32 34 38 40 43 42 39 39 37 40 39 38 37 36 36 33 32 36 39 40 40 40 43 46 48 48 50 51 51 52 52 53 54 54 55 55 55 55 55 55 55 56 54 53
46 45 44 44 43 42 33 36 41 36 33 39 36 35 35 37 37 34 36 37 38 38 39 37 34 35 41 42 43 42 43 47 47 45 47 50 51 51 51 53 53 54 53 54 55 53 56 54 55 55 53 52 53 53
42 42 43 43 40 39 34 32 32 34 34 32 35 34 33 35 36 38 37 40 38 41 39 38 40 42 46 45 46 48 48 48 48 48 48 49 51 51 52 52 53 53 52 52 53 52 52 53 54 55 53 54 53 52
40 43 39 39 37 35 35 36 36 37 34 34 34 36 35 38 39 41 42 41 41 40 42 42 42 43 45 46 47 48 50 51 51 50 49 49 50 50 50 51 51 51 51 51 51 51 52 52 52 52 52 52 52 52
41 41 37 32 30 35 33 35 33 34 31 35 36 37 39 40 41 42 40 41 42 46 46 45 45 46 46 47 50 51 51 51 50 50 51 51 52 53 52 52 51 50 51 52 51 51 51 48 49 51 50 50 49 48
37 35 31 31 30 32 33 35 36 37 39 38 37 37 38 40 41 39 36 39 43 45 46 47 48 49 50 50 49 50 51 51 50 51 51 51 50 50 49 49 49 50 50 50 50 51 52 52 49 45 43 41 39 37
34 33 35 34 35 31 32 34 36 37 37 37 37 38 39 40 36 35 35 40 43 46 49 50 50 49 48 49 50 51 53 52 50 50 52 48 49 51 51 50 50 49 50 49 49 51 51 45 41 39 36 34 35 36
33 35 36 34 38 36 37 36 35 37 38 38 38 40 40 39 35 33 39 42 44 47 49 49 49 49 49 51 50 51 52 49 46 46 49 46 43 40 41 42 41 44 46 47 46 44 42 41 38 36 34 35 36 36
35 37 40 42 40 39 37 38 39 39 38 38 39 39 39 35 34 40 45 47 48 50 52 53 52 50 49 50 53 53 52 50 47 44 44 41 38 39 37 35 34 32 32 33 35 36 35 34 33 35 36 37 37 37
38 39 36 38 38 39 39 39 39 39 39 39 40 37 37 36 38 44 46 49 51 52 53 52 49 47 48 47 44 44 44 44 44 41 37 36 35 34 37 36 38 38 40 39 38 37 37 37 37 37 37 38 38 39
39 40 40 39 39 40 40 39 39 39 39 39 37 38 39 42 46 47 49 51 52 50 47 47 47 47 45 42 42 38 36 36 37 34 32 31 32 34 36 36 36 37 37 38 38 40 43 40 40 39 39 39 40 42
41 41 40 41 38 38 39 39 38 39 38 38 39 40 41 42 46 49 48 47 45 44 42 42 43 41 38 36 36 35 32 32 32 32 33 34 34 35 36 36 36 36 37 38 37 38 38 39 39 40 40 40 40 40
42 40 39 37 36 36 36 36 36 36 37 36 35 35 37 39 39 38 35 35 33 33 32 30 30 30 30 29 31 32 33 35 37 38 37 35 36 38 38 39 38 39 40 41 40 39 39 39 40 40 40 40 41 38
37 36 35 37 37 35 33 32 31 31 31 30 29 30 31 30 31 33 36 37 35 34 36 34 33 33 35 35 35 34 36 36 38 39 41 39 40 41 40 40 40 41 41 41 41 40 40 40 40 39 39 40 39 37
36 35 34 34 34 34 34 33 32 31 31 31 31 31 31 32 33 35 38 36 32 31 32 33 34 36 40 37 38 38 39 42 42 37 38 37 37 39 40 40 41 42 40 40 40 40 40 40 39 40 38 37 36 35

GFSWCAN_sfc_dewp_024.txt.gz
Dewpoint
49 48 47 45 46 45 45 46 45 45 44 46 44 44 45 45 46 44 40 41 33 30 28 28 24 30 31 30 29 36 32 34 33 31 27 25 25 26 28 35 33 33 32 28 32 30 26 28 39 46 59 59 58 57
50 48 47 45 46 45 46 47 45 45 44 45 45 43 44 45 46 46 39 36 35 29 25 28 25 25 28 35 35 36 36 37 36 29 31 27 26 29 40 28 36 32 39 35 37 34 56 55 59 61 61 60 60 60
50 49 47 45 46 45 45 45 45 45 45 44 45 44 44 44 45 45 40 41 37 34 30 25 23 29 22 22 29 34 36 45 46 49 43 39 36 30 34 32 36 37 42 40 43 46 53 56 58 58 60 60 59 58
50 49 47 46 46 46 44 45 45 46 45 44 44 44 45 45 45 46 41 40 39 36 28 30 34 34 33 28 24 28 35 40 43 43 38 37 37 38 34 39 38 44 46 44 43 51 57 56 56 57 58 60 59 61
49 49 47 46 46 46 45 45 46 45 45 44 43 44 45 45 46 44 42 41 41 38 35 34 32 31 33 34 30 28 35 40 35 32 29 30 30 32 33 34 33 45 47 51 52 54 56 56 57 57 56 56 58 60
49 47 46 46 45 45 45 45 45 45 44 44 44 44 45 46 46 43 40 40 42 40 37 31 36 36 34 34 33 32 35 37 33 31 30 30 34 39 33 33 38 39 45 48 52 52 55 55 53 54 54 56 59 60
47 47 46 46 45 45 45 45 44 44 44 44 44 45 45 46 43 40 42 44 45 44 38 32 28 33 35 35 32 33 36 33 32 30 30 30 31 34 31 32 44 45 47 48 48 48 48 50 51 52 52 54 58 59
47 47 46 46 45 45 45 45 44 44 44 44 45 46 47 47 46 42 43 46 45 41 38 34 36 34 37 31 32 33 32 32 32 30 30 29 29 33 31 36 35 40 43 45 44 44 45 45 50 56 56 51 59 58
47 47 46 46 46 45 45 45 44 44 43 44 45 46 45 43 41 42 47 46 44 42 38 31 36 40 34 33 38 35 32 30 30 29 29 30 30 30 33 39 36 36 41 41 42 42 44 45 45 49 48 50 52 57
47 47 47 46 45 46 46 45 44 44 44 45 42 42 43 43 49 46 45 43 41 39 38 34 34 43 38 32 35 37 37 30 31 28 29 28 27 35 32 35 41 43 43 41 41 41 43 44 48 51 46 47 49 55
47 47 47 45 45 46 46 45 44 44 45 40 41 43 44 49 43 41 40 37 37 34 32 29 32 32 35 35 43 46 42 38 36 32 32 35 29 39 37 43 44 41 41 41 42 44 43 42 45 50 46 46 45 56
48 47 47 46 46 46 46 45 43 39 41 42 42 44 43 40 40 39 37 34 32 32 34 30 33 32 36 41 46 48 39 40 35 38 36 29 44 47 44 45 46 47 46 46 45 42 41 42 43 45 48 47 47 49
48 48 47 47 47 46 46 45 43 43 43 42 42 40 36 38 34 30 30 30 30 36 38 38 40 37 40 39 42 42 38 34 32 35 30 46 48 46 46 45 43 45 45 46 47 47 47 42 43 45 46 47 48 52
48 47 47 47 47 46 46 43 43 42 42 41 37 35 34 32 29 29 32 34 38 41 42 40 40 40 44 43 42 38 34 35 34 30 36 48 47 45 45 45 44 44 44 44 45 46 47 47 45 45 46 47 49 51
48 47 47 47 46 46 44 43 42 40 41 38 29 30 25 30 31 32 34 37 37 39 40 38 37 36 38 40 38 37 35 32 35 40 44 46 47 46 46 47 47 47 45 46 46 45 47 48 49 49 52 50 51 52
47 47 43 47 46 45 44 41 39 41 39 34 31 28 31 30 30 31 32 39 40 38 37 36 36 36 35 35 33 33 30 34 43 46 42 44 48 48 49 48 48 48 49 49 48 48 49 50 51 53 52 52 54 51
46 37 47 47 46 45 43 39 36 36 34 32 30 31 33 33 33 36 41 39 45 36 38 36 35 35 36 33 31 33 40 41 40 41 42 48 49 48 49 49 50 49 50 50 50 51 52 52 53 56 55 57 59 59
44 45 47 46 43 39 38 40 36 34 31 31 32 31 32 33 44 46 41 42 41 38 38 36 38 36 34 32 32 39 40 41 43 45 44 47 49 50 51 51 52 52 51 52 52 54 55 56 55 56 56 56 56 56
42 43 46 45 41 39 33 35 37 32 29 33 32 34 37 40 43 43 39 40 39 39 36 35 34 33 33 37 39 41 42 42 43 44 47 50 51 51 51 52 53 53 54 54 55 56 56 56 56 56 56 55 54 54
46 46 45 43 43 42 34 32 38 38 33 38 36 39 40 41 38 38 39 39 36 34 35 33 32 41 45 45 46 44 43 47 48 47 47 50 51 52 52 53 53 53 54 55 55 52 55 54 54 54 55 54 53 52
40 39 43 42 41 41 37 30 30 34 35 34 36 38 35 36 36 36 37 39 35 37 36 38 43 45 48 48 47 47 50 50 49 49 48 48 51 52 52 52 53 53 53 53 52 51 52 54 55 53 52 52 52 53
39 42 40 42 39 33 34 34 36 35 32 34 35 36 35 38 38 40 40 39 38 40 44 43 43 43 44 46 49 49 50 51 51 51 49 50 50 50 51 51 51 52 52 52 52 51 51 52 53 53 52 52 52 53
43 42 38 32 29 34 32 33 34 34 34 35 34 34 37 39 42 42 41 42 43 46 46 45 46 47 47 48 50 51 52 51 50 51 52 52 52 53 52 54 52 50 50 51 52 51 51 48 50 51 51 49 48 48
37 36 32 30 29 32 33 33 34 36 38 36 37 36 38 40 42 39 37 39 43 46 46 46 47 48 50 50 50 50 51 52 51 51 52 52 51 51 51 51 51 51 50 51 50 48 48 48 46 48 48 46 45 42
35 34 34 33 34 32 30 31 34 36 36 38 37 38 39 40 37 35 35 41 44 45 49 50 50 50 48 49 50 51 53 53 50 51 54 48 48 48 51 52 51 50 50 50 49 49 48 46 46 40 35 34 36 36
34 33 37 35 37 35 35 36 37 37 38 38 38 40 41 39 36 34 39 43 44 47 49 49 49 49 49 50 50 51 52 54 52 49 50 50 48 46 49 47 46 50 49 49 46 42 38 36 35 35 35 36 37 36
35 37 40 40 40 40 39 39 40 39 38 38 39 39 39 35 34 40 45 48 48 51 52 52 52 51 51 52 52 53 54 51 48 42 44 45 40 39 35 34 36 44 47 42 39 36 34 33 34 35 36 37 37 37
39 39 37 39 39 39 38 39 39 39 41 41 41 39 37 37 39 44 47 50 52 53 54 54 53 54 53 50 48 46 46 43 41 36 32 32 35 36 38 36 38 39 42 40 36 36 36 37 37 37 37 37 39 39
38 40 40 39 39 40 41 39 38 38 40 40 40 39 40 43 47 48 50 51 52 51 47 45 47 46 44 44 43 41 38 34 33 33 33 32 33 33 35 35 36 38 38 39 38 38 40 39 39 39 39 39 39 40
41 41 41 41 39 39 40 40 40 40 41 42 43 44 43 45 47 49 49 49 48 46 45 44 43 39 37 33 31 31 31 32 32 32 33 34 34 34 35 36 36 36 37 37 36 36 37 38 37 40 39 38 38 38
43 42 40 38 38 39 40 41 41 41 42 43 43 39 39 40 43 46 46 43 41 42 42 35 31 29 29 32 32 32 33 36 38 39 37 35 36 38 38 38 38 38 39 39 38 38 38 38 39 38 38 39 40 37
41 39 40 35 34 35 36 35 35 36 37 37 37 36 34 34 34 35 35 35 32 31 36 33 32 33 34 33 35 36 37 38 42 42 43 41 41 42 40 39 39 40 39 39 39 38 39 39 38 38 37 38 39 37
40 39 36 36 37 36 35 35 34 33 32 30 30 29 30 30 31 34 36 36 34 31 32 33 33 35 39 37 38 40 40 42 41 37 37 37 36 38 40 40 41 40 39 38 38 38 39 39 38 38 38 37 36 35

GFSWCAN_sfc_dewp_027.txt.gz
Dewpoint
51 50 49 48 46 46 46 46 47 46 45 45 46 46 45 45 46 45 43 46 40 34 31 31 28 31 29 36 37 39 39 39 39 34 32 30 29 31 30 32 38 35 35 30 32 33 30 52 51 51 51 54 60 56
51 50 50 48 46 46 46 46 46 45 46 45 45 45 45 46 46 46 41 41 42 40 31 32 30 29 27 35 38 38 40 45 48 44 40 40 32 35 37 34 41 35 36 34 32 35 58 60 60 61 61 60 60 59
51 50 50 49 46 46 46 45 45 45 46 45 45 44 45 46 46 45 41 43 43 41 36 35 30 30 25 25 23 38 42 43 45 49 48 45 42 39 36 41 42 45 49 42 43 56 57 58 59 59 60 60 62 61
50 50 50 49 46 46 46 45 45 46 46 45 45 44 45 45 46 46 40 42 43 40 35 36 37 41 42 34 30 34 37 44 45 45 44 42 39 42 36 41 41 44 48 50 52 55 57 56 56 59 59 61 61 62
50 50 50 49 47 46 45 46 46 46 45 45 45 44 45 45 47 45 42 44 44 42 36 37 37 36 37 39 36 34 37 41 41 39 39 36 37 39 40 39 43 44 47 49 50 54 55 57 58 59 59 60 61 61
50 50 50 48 46 46 45 46 45 46 45 45 45 45 45 46 47 41 44 46 43 45 41 36 42 41 38 38 40 39 40 42 41 38 36 38 39 42 39 38 48 48 50 52 51 53 55 56 58 58 57 59 61 61
48 49 48 47 46 46 45 45 45 45 45 45 45 46 46 47 44 39 42 45 46 46 42 37 37 38 39 39 37 36 40 40 38 36 35 35 35 41 38 35 45 46 47 48 49 50 51 54 52 56 55 61 60 60
48 48 48 46 46 46 45 45 45 45 45 44 45 46 47 46 46 44 45 48 47 43 42 38 38 38 40 36 37 40 38 39 41 38 38 35 36 40 36 40 42 45 45 46 48 47 47 48 54 55 55 54 58 59
48 48 47 46 47 46 45 45 45 45 45 44 45 46 44 44 43 46 49 49 47 45 41 38 37 41 44 37 42 41 41 37 39 34 34 36 35 36 39 38 40 44 46 46 46 46 44 47 49 50 52 55 56 59
48 48 47 47 47 47 46 46 46 46 46 45 42 42 42 45 51 48 46 44 43 43 42 37 39 44 46 43 41 43 42 37 36 36 34 32 33 37 38 41 47 48 45 44 43 44 46 46 47 50 51 50 53 54
49 48 48 47 46 46 46 46 46 45 45 39 41 45 50 49 45 43 42 41 40 37 37 34 32 42 45 41 45 48 45 43 38 38 36 38 37 46 48 48 50 49 47 46 48 47 45 44 45 49 49 50 51 55
49 48 48 47 46 46 46 47 45 40 42 41 41 43 45 42 43 39 39 38 34 34 39 35 35 40 43 48 47 47 44 43 38 43 40 38 47 49 47 47 48 48 48 48 49 48 48 48 48 46 49 52 51 54
48 48 48 47 47 47 47 47 45 44 42 42 43 41 38 42 35 32 31 33 35 40 44 44 43 43 46 46 45 46 41 39 42 40 39 45 49 50 48 47 46 46 46 46 46 47 47 48 48 49 49 50 51 53
48 48 48 47 47 48 47 46 43 42 41 41 39 33 36 33 31 31 34 39 42 43 42 44 43 45 46 46 44 39 42 43 37 35 39 48 48 48 48 46 47 48 48 46 46 46 46 46 48 50 50 52 53 51
48 48 47 47 48 48 47 45 42 40 40 40 39 31 30 33 36 36 41 45 43 43 42 42 42 43 44 43 42 41 39 36 39 42 46 50 50 50 50 50 49 49 49 48 48 48 47 47 48 51 53 53 54 54
48 47 44 47 48 47 46 43 39 40 41 39 36 30 34 35 39 35 36 40 43 43 43 42 40 40 37 38 37 36 33 37 42 46 46 48 50 50 49 49 48 49 49 50 50 50 49 49 49 51 53 55 56 56
45 38 46 47 47 46 44 39 36 37 36 33 33 35 37 41 39 43 48 46 45 42 42 40 39 36 42 37 33 41 42 43 43 45 48 50 49 49 49 49 50 50 51 51 50 51 51 51 51 53 54 52 54 55
45 46 48 47 45 40 37 40 37 32 31 33 34 39 38 39 47 49 48 45 45 42 42 39 42 38 38 33 37 43 43 44 46 47 47 49 50 50 51 50 51 51 52 52 52 52 53 54 54 54 55 55 55 54
45 46 47 46 42 39 36 37 40 36 31 35 37 38 40 45 45 47 45 47 46 45 42 41 36 35 37 45 43 43 43 44 45 46 47 49 50 51 51 51 52 53 54 53 53 54 54 55 55 55 55 54 52 52
46 46 46 43 42 42 36 36 44 41 39 41 39 41 42 47 44 43 43 43 42 40 39 36 37 45 47 46 47 46 47 48 48 47 47 49 50 51 52 52 52 53 54 54 54 51 53 53 54 54 54 53 52 52
39 40 42 41 42 41 43 38 32 39 41 40 40 43 40 41 40 42 41 41 39 40 36 40 45 47 48 49 49 49 49 50 49 48 48 48 50 51 51 52 52 52 52 52 51 51 52 53 53 52 52 51 52 52
40 44 41 41 40 41 38 41 43 41 38 36 37 38 39 40 39 40 41 37 38 42 45 43 44 45 45 47 48 50 51 50 50 50 48 49 50 50 50 51 52 51 51 51 51 51 51 52 52 52 51 52 52 52
43 43 41 37 30 34 32 38 35 36 37 39 39 34 38 39 40 41 40 43 43 45 45 44 46 47 48 48 49 51 51 50 50 51 51 51 53 52 52 52 51 50 50 50 51 51 51 48 49 49 49 48 47 47
40 38 36 32 30 32 33 33 37 37 37 35 36 34 38 40 42 40 37 39 43 45 45 46 47 47 49 49 49 49 50 51 51 51 52 52 50 52 52 51 50 50 50 51 49 49 49 48 46 48 48 48 47 47
33 27 34 32 34 32 31 32 34 35 35 37 37 39 39 41 36 35 34 39 44 45 47 49 49 48 48 48 49 50 52 51 50 49 51 50 50 50 50 50 49 49 48 47 48 47 47 48 48 48 48 46 41 41
32 30 36 34 37 37 34 33 37 37 38 37 39 41 41 39 36 34 39 42 44 46 48 48 48 49 49 50 49 50 51 53 53 50 51 50 48 47 48 47 47 50 51 51 50 50 48 47 44 40 39 39 39 41
34 37 41 41 40 39 38 39 40 39 37 36 39 39 38 36 34 39 45 47 47 50 51 52 51 50 49 50 54 55 54 52 52 50 50 49 49 50 49 46 48 49 50 49 43 39 39 39 39 39 40 42 43 42
39 40 37 39 39 40 38 39 39 38 39 42 40 39 37 37 39 44 46 49 52 52 52 53 54 54 54 51 50 50 50 50 49 43 36 37 40 42 44 43 44 40 42 41 43 43 43 43 42 41 42 42 43 43
37 40 40 38 39 40 40 41 40 41 44 42 41 39 40 43 47 48 50 50 52 52 51 50 50 51 50 50 48 46 44 40 37 37 36 34 35 37 40 41 43 43 42 39 37 39 41 40 40 43 44 43 43 45
41 41 40 41 41 41 42 43 43 44 45 47 45 45 46 48 50 51 50 50 49 48 47 46 45 45 43 44 43 43 41 39 39 38 38 38 37 37 39 41 41 41 43 41 39 40 37 41 39 44 43 43 43 43
41 41 41 41 42 43 44 45 44 44 43 45 43 41 42 44 45 48 48 48 47 47 45 43 41 38 38 35 38 36 37 42 45 45 43 39 39 43 43 44 44 45 45 43 42 41 40 41 43 42 43 43 42 40
44 42 41 38 41 43 44 44 45 45 44 42 40 40 40 41 40 45 47 47 47 46 43 40 36 36 38 39 42 42 41 42 42 43 43 43 43 45 43 43 43 45 44 42 42 43 43 43 42 41 41 42 42 41
43 42 38 37 37 37 38 38 38 37 37 36 35 33 32 32 33 39 44 45 44 37 40 40 37 41 45 43 43 42 41 41 38 37 36 36 36 37 39 40 43 43 42 42 41 41 42 42 42 42 42 41 41 40

GFSWCAN_sfc_dewp_030.txt.gz
Dewpoint
51 51 51 50 49 48 47 47 46 47 46 46 46 45 45 47 47 44 41 43 39 32 30 29 28 27 24 32 34 35 37 40 40 30 28 27 25 25 28 27 28 26 26 29 32 31 27 52 54 43 49 55 54 55
51 51 51 51 50 48 48 46 47 46 46 46 46 45 45 46 46 46 39 41 42 39 34 30 32 33 28 24 33 34 39 38 47 44 42 41 28 31 32 27 36 32 30 30 30 32 52 57 57 58 56 57 58 56
51 51 51 51 50 48 47 46 46 45 46 46 46 45 45 45 46 45 40 41 42 39 37 35 31 30 27 21 25 32 36 37 37 43 45 43 39 40 34 37 38 41 46 44 47 53 53 55 57 59 61 62 62 60
51 51 50 50 50 48 48 47 46 46 46 46 46 45 45 45 46 46 40 40 41 40 35 33 37 35 32 31 27 30 31 35 38 42 40 40 35 36 31 32 38 42 45 48 50 52 55 55 55 57 61 63 63 62
51 50 50 50 50 49 48 47 46 46 46 46 45 45 45 45 46 45 42 42 43 40 35 35 37 36 35 35 32 30 31 34 36 34 35 32 34 38 39 39 43 45 46 46 47 51 53 55 55 57 58 62 62 61
50 50 50 50 49 48 47 47 47 46 46 45 45 45 45 46 47 41 42 44 43 44 40 35 38 34 34 32 32 37 33 36 36 35 32 34 35 36 34 38 45 46 48 51 48 52 52 55 59 59 59 62 62 61
49 48 50 50 49 48 47 46 46 46 46 46 46 46 46 47 43 38 41 44 46 43 41 37 36 37 34 33 33 31 32 35 35 32 30 29 31 35 36 32 42 45 45 44 45 46 47 52 52 55 61 62 60 60
48 48 49 49 48 48 47 47 46 47 46 46 46 46 46 46 45 42 44 47 45 42 42 36 36 37 35 32 32 35 33 35 34 34 34 30 32 35 33 34 38 42 44 43 43 44 44 46 48 51 56 59 59 58
48 48 49 48 48 48 47 47 46 47 47 46 45 46 43 42 41 44 50 49 44 43 39 39 35 36 44 38 36 37 37 33 36 32 32 34 31 30 32 31 29 38 42 43 43 44 44 44 44 47 50 54 56 58
49 48 48 48 48 48 47 47 46 47 47 46 42 41 40 44 51 48 44 42 42 42 41 37 39 39 42 41 40 41 41 33 32 33 32 30 30 33 41 40 40 44 42 41 39 40 41 42 43 44 46 48 49 52
49 49 48 48 48 48 48 47 47 46 44 39 40 42 44 50 43 42 39 39 40 37 39 37 32 32 44 39 39 44 40 40 35 34 35 32 30 44 46 46 46 46 47 47 47 46 46 46 46 46 46 46 49 51
49 49 48 48 48 47 47 47 47 39 40 40 39 41 42 41 40 37 36 37 37 33 36 32 32 41 43 49 43 43 38 40 34 41 39 35 43 46 46 45 44 44 44 45 46 46 46 47 48 48 48 49 49 50
49 49 48 48 48 47 47 47 47 46 42 40 40 38 39 37 29 33 32 34 34 36 42 40 41 41 45 45 42 40 37 37 44 39 37 41 44 48 48 47 48 46 46 45 45 45 45 45 46 48 50 50 52 52
48 48 48 48 47 47 47 48 46 43 40 39 39 29 34 30 33 33 33 37 41 42 40 40 39 40 42 40 40 37 40 42 39 37 38 43 47 48 48 49 49 48 47 47 47 48 46 46 46 48 51 52 53 53
48 48 48 47 47 48 48 47 44 40 39 39 40 28 33 35 37 41 44 44 44 43 39 39 39 39 39 38 39 40 39 35 40 39 45 45 46 46 46 47 47 47 47 47 48 48 48 48 47 48 50 52 54 54
48 48 46 47 48 48 47 45 41 39 41 41 39 34 34 35 39 40 43 44 45 41 40 40 38 35 34 36 36 36 35 37 40 43 44 45 45 45 45 46 46 47 48 48 49 49 49 48 48 48 49 52 52 53
45 41 46 48 48 47 45 40 37 36 37 36 34 36 36 40 42 42 44 43 44 40 37 37 34 34 38 35 33 40 38 40 44 45 48 44 44 45 46 46 47 48 49 50 51 50 50 51 50 50 49 50 50 51
43 45 48 48 45 42 40 39 39 36 32 34 32 37 44 45 43 43 44 45 41 39 38 37 38 35 35 35 38 41 43 44 45 44 45 45 45 46 49 48 49 50 51 52 52 50 49 50 50 50 52 53 52 51
44 46 48 46 42 39 38 39 40 37 35 35 36 37 44 44 43 44 43 41 41 41 37 37 33 33 38 41 42 42 43 44 43 44 46 46 47 48 50 50 51 52 53 53 52 50 54 55 54 54 53 52 51 51
47 47 47 46 43 41 39 35 42 38 37 39 41 41 41 42 42 41 41 40 38 36 34 33 38 41 42 42 43 43 45 45 45 44 44 48 49 51 51 51 51 53 53 53 53 50 53 53 53 53 52 52 51 51
41 43 43 41 40 40 41 40 34 39 40 39 41 41 37 40 41 41 39 40 36 35 33 41 41 42 44 45 46 46 46 47 47 48 47 47 50 51 51 51 52 52 51 51 51 51 51 51 52 52 52 51 51 51
39 45 42 41 41 43 41 42 41 42 40 37 40 40 39 39 39 38 40 37 36 39 40 40 40 42 43 43 45 47 49 50 50 50 48 49 49 50 50 51 51 50 50 51 51 51 51 52 52 51 51 51 51 51
43 42 41 43 38 29 27 39 37 37 36 37 37 34 37 37 38 40 36 39 39 41 41 41 42 43 46 45 47 49 50 50 50 50 50 51 51 52 50 50 50 50 50 50 51 51 50 48 48 49 49 48 48 48
43 38 37 35 28 23 35 34 38 37 35 34 34 32 35 38 38 36 36 38 42 44 45 46 47 46 47 48 48 48 50 51 50 51 51 50 50 50 50 50 50 50 50 49 49 49 48 48 46 47 47 47 46 47
32 21 31 24 31 33 32 33 32 33 32 34 32 33 37 39 35 35 34 39 42 44 45 48 48 48 47 47 48 49 51 51 49 48 49 49 49 48 47 47 47 46 47 45 45 46 47 47 47 47 48 47 46 45
27 29 28 35 34 34 33 29 30 33 37 37 38 40 40 38 35 34 38 42 44 45 48 48 47 48 48 49 48 49 49 50 50 48 48 49 48 47 46 45 45 46 49 49 49 48 46 46 46 46 45 44 41 42
32 35 39 40 39 37 36 36 39 38 37 37 38 38 37 35 34 38 44 46 46 49 50 50 50 49 49 48 49 50 50 50 50 49 49 49 48 48 49 48 48 48 49 50 49 42 41 40 38 40 41 42 42 42
38 39 35 36 36 39 38 39 38 38 39 41 40 38 37 37 38 43 46 49 51 51 52 52 51 50 50 50 50 51 50 51 50 49 40 42 45 46 42 42 40 38 40 41 42 42 43 42 41 43 41 40 41 43
37 39 39 38 39 39 39 39 41 42 43 42 40 39 40 42 46 47 49 50 50 50 49 48 49 50 51 51 50 50 48 46 36 31 31 32 33 35 39 41 41 39 37 36 36 38 38 40 42 41 41 40 42 41
39 41 40 41 39 39 43 45 44 46 47 46 45 46 47 48 49 51 50 49 49 48 49 49 49 48 48 48 48 46 44 43 38 35 34 34 34 35 37 40 40 41 40 38 36 35 36 38 37 40 41 42 42 41
42 41 41 43 43 45 46 47 47 46 45 46 44 43 43 45 46 48 48 48 48 48 47 46 46 45 44 44 43 40 40 42 43 43 43 43 43 42 42 42 41 41 41 39 38 39 37 38 41 42 42 39 39 37
44 43 42 41 43 46 48 46 46 45 44 42 41 41 41 43 42 44 47 47 47 47 47 47 46 39 41 41 41 41 39 40 41 41 41 42 41 41 41 42 43 42 41 41 42 41 41 40 40 40 40 40 38 37
43 41 39 39 41 42 41 42 41 39 39 39 39 40 41 41 37 40 44 47 46 45 45 42 41 42 42 40 40 40 39 38 36 36 36 36 36 37 38 40 41 41 39 39 40 40 40 39 39 38 37 37 36 35

GFSWCAN_sfc_dewp_033.txt.gz
Dewpoint
51 51 51 50 50 50 48 46 46 47 46 47 46 46 46 46 46 44 40 41 40 34 33 29 29 26 25 29 32 33 35 41 44 29 27 27 23 25 26 27 27 23 24 26 31 28 23 55 55 38 41 53 53 53
51 51 51 51 50 50 48 46 46 46 45 46 46 46 46 45 46 45 36 39 41 39 34 33 33 33 29 26 28 35 39 39 44 42 41 39 30 32 30 25 37 32 29 29 30 31 52 55 55 56 54 55 55 54
51 51 51 51 51 51 49 46 46 46 46 46 46 46 45 45 46 45 39 39 40 38 36 34 30 31 34 31 27 31 34 37 34 43 44 42 38 38 31 34 35 40 46 46 48 51 52 54 57 60 61 60 62 59
51 51 51 51 51 51 49 47 46 46 46 46 46 46 45 45 46 46 39 38 39 38 35 34 38 36 37 26 24 31 31 34 37 41 39 39 34 34 30 30 33 39 44 48 50 52 53 54 55 57 59 59 62 61
51 51 51 51 50 50 49 48 47 46 46 46 46 46 45 45 46 45 40 41 41 39 35 35 37 36 36 32 31 26 32 32 33 32 34 33 34 34 36 41 45 46 45 44 46 51 51 52 55 57 59 61 61 60
50 50 50 50 50 50 48 48 46 46 46 46 46 46 45 45 46 40 41 43 43 42 37 33 38 37 36 32 31 31 34 36 35 32 31 32 35 34 32 37 44 46 49 50 48 51 54 56 58 58 60 61 61 61
50 50 50 50 50 50 49 48 46 46 46 46 46 46 46 46 41 36 39 43 45 42 39 37 35 37 34 33 33 31 32 34 33 32 29 28 28 33 35 32 43 45 45 46 50 48 51 53 53 58 60 62 60 60
49 49 48 49 50 49 48 48 47 46 46 46 47 47 47 46 44 42 43 46 45 41 41 35 35 36 39 32 31 33 31 34 32 32 34 29 30 33 29 33 35 42 44 42 44 44 48 48 51 53 59 60 58 58
48 48 47 49 49 48 48 47 46 47 47 47 46 46 42 40 39 42 50 47 44 42 38 38 34 35 42 38 35 36 35 31 35 32 31 32 31 27 29 31 32 34 43 42 44 44 43 43 45 48 52 56 55 56
48 48 48 49 49 48 48 47 46 47 47 47 41 40 38 42 48 45 42 41 41 40 39 36 39 38 39 40 40 40 39 33 31 32 32 30 29 33 44 44 40 40 41 42 40 40 42 44 45 44 46 48 48 51
49 49 48 49 48 48 47 47 47 46 41 38 38 41 43 45 42 41 37 37 38 37 39 39 35 31 40 37 39 42 39 39 34 34 30 31 34 43 45 45 45 46 46 46 46 46 46 46 46 47 48 49 49 49
50 50 49 49 48 47 48 47 46 39 37 39 38 40 40 41 38 35 34 37 36 34 37 34 33 34 42 46 41 41 36 38 33 40 38 34 42 45 46 46 46 45 45 45 45 45 45 46 48 48 48 50 51 51
49 49 49 49 48 47 48 47 47 44 42 39 39 37 38 35 28 32 30 33 34 35 41 41 41 41 44 46 41 38 34 34 42 37 37 41 44 46 47 49 49 49 48 47 47 47 46 46 46 48 49 51 53 52
48 49 49 49 48 48 48 48 47 43 38 38 39 28 32 28 33 33 33 34 39 43 42 42 41 41 42 39 40 36 38 40 37 35 37 45 46 47 48 47 46 46 46 46 46 47 48 48 47 47 47 51 52 52
47 48 49 48 48 48 48 48 45 39 38 39 40 33 34 35 35 39 40 42 44 45 42 41 41 39 38 37 38 37 37 35 39 39 44 47 48 45 45 46 45 45 46 46 47 48 48 49 48 48 48 49 51 53
47 48 47 48 48 48 48 45 40 38 39 40 38 36 35 35 38 39 40 41 45 44 41 39 38 35 34 36 35 35 34 36 37 40 42 43 42 43 44 44 45 46 46 46 47 47 48 48 48 48 48 48 49 51
46 44 48 48 48 48 45 38 36 34 37 37 35 36 35 37 38 42 42 42 45 40 36 37 32 33 37 35 34 39 38 40 42 44 44 43 42 43 43 44 46 46 47 47 48 50 51 51 51 50 48 49 49 49
43 46 48 48 45 42 40 39 39 37 34 34 33 34 40 41 43 42 42 44 39 37 37 36 37 34 33 34 37 39 41 42 44 44 43 43 43 44 45 46 47 48 49 51 51 51 48 49 48 48 51 51 51 50
44 46 48 45 41 37 35 37 39 36 36 35 36 37 42 44 44 44 42 40 39 40 36 35 32 33 37 39 39 42 43 44 43 42 43 44 45 47 49 51 51 52 52 53 52 50 53 54 54 53 52 51 50 50
47 48 47 45 43 41 40 36 40 37 35 37 42 41 42 42 42 40 39 39 36 35 33 34 38 39 40 41 42 42 43 43 43 44 44 46 49 50 51 51 51 52 52 53 52 50 52 52 52 52 52 51 51 50
43 45 44 41 39 39 39 38 35 36 38 38 42 39 37 42 42 39 38 39 35 34 34 40 40 42 43 43 44 45 44 44 46 47 47 47 49 50 51 51 51 51 51 51 51 50 50 50 51 52 51 51 51 51
39 43 39 40 40 41 41 41 39 41 39 37 39 40 39 39 37 37 38 37 36 38 39 39 39 40 41 42 44 44 46 47 49 50 47 48 49 50 50 50 50 50 50 50 50 50 50 51 51 51 50 50 50 51
44 43 41 41 38 32 28 40 39 38 35 37 35 34 35 35 36 38 34 35 36 38 39 39 40 41 44 45 45 46 50 50 50 50 50 50 51 50 50 50 50 50 50 50 50 50 48 46 47 48 48 48 48 48
43 39 38 37 31 21 33 35 36 34 34 32 33 32 34 36 36 35 34 35 40 43 44 45 47 46 46 47 47 48 50 51 50 50 50 50 49 49 49 49 49 49 49 47 48 47 47 47 45 46 46 45 45 46
29 23 30 23 29 33 32 32 31 31 31 33 32 34 36 35 35 35 34 38 41 43 45 46 47 47 46 47 48 49 50 50 49 46 47 48 46 45 45 45 45 45 46 46 45 45 45 46 46 46 46 45 45 44
23 29 26 33 33 32 30 28 27 30 33 33 34 37 39 37 35 33 38 41 43 44 47 48 47 47 47 48 48 48 49 50 48 47 47 47 47 45 44 43 43 43 47 47 46 45 45 46 46 46 46 47 43 43
28 32 38 38 36 35 33 34 38 37 37 36 37 38 37 34 34 37 42 45 46 48 50 50 50 49 48 48 48 49 49 50 48 48 50 49 48 47 47 46 45 46 47 48 49 49 46 47 46 44 42 43 43 43
37 38 33 36 33 36 38 38 38 37 38 41 40 37 36 36 37 42 44 49 51 51 51 51 51 50 49 48 48 48 48 48 49 46 43 45 46 47 46 44 44 40 41 43 43 42 40 39 41 42 43 42 42 42
36 39 38 36 38 38 39 39 40 42 42 41 40 39 40 42 45 47 49 50 50 49 48 48 47 49 48 48 49 49 49 48 43 35 38 39 39 38 40 39 39 38 37 37 36 39 43 43 42 41 41 41 42 42
39 41 39 40 38 38 42 43 44 46 46 46 45 46 47 46 49 50 49 48 48 48 48 48 48 48 47 47 47 47 42 44 40 33 33 34 35 35 37 39 41 40 38 37 35 35 36 37 39 40 41 41 40 38
43 42 41 42 42 45 47 48 48 47 46 46 46 43 43 44 45 47 48 48 48 48 48 47 47 47 46 46 46 42 40 41 42 38 37 38 38 38 38 39 40 40 40 38 37 37 36 38 40 42 41 39 39 37
44 43 43 41 43 47 48 46 46 44 43 42 41 41 41 42 42 43 46 47 46 46 46 46 46 46 42 42 44 42 39 40 41 42 41 41 41 41 42 41 41 41 41 42 41 40 41 41 42 42 40 39 38 36
42 41 41 42 42 40 41 41 40 39 40 39 40 40 40 41 40 40 44 46 44 43 44 46 47 46 41 41 40 39 37 37 36 36 36 37 37 37 39 39 40 40 40 41 41 40 40 39 38 38 37 36 35 35

GFSWCAN_sfc_dewp_036.txt.gz
Dewpoint
52 51 51 50 50 49 50 48 46 46 46 46 46 46 46 46 46 42 39 40 39 34 34 31 28 26 25 29 28 31 35 40 42 28 27 27 24 27 26 30 27 23 26 26 31 27 22 55 54 36 39 52 54 53
52 51 51 51 50 50 50 49 46 46 45 46 46 46 46 46 46 43 33 38 40 38 33 36 33 35 29 28 26 31 38 38 42 39 40 37 31 34 30 25 36 31 31 31 29 29 48 54 55 58 55 54 54 53
51 51 51 51 50 50 50 49 46 46 45 46 46 46 46 45 45 44 37 37 38 37 36 34 33 35 35 32 27 24 34 36 34 44 44 42 35 36 30 34 34 39 43 46 47 49 52 54 55 60 61 60 61 56
51 51 51 50 50 50 50 49 47 46 46 46 46 46 46 45 45 45 38 37 38 37 33 34 37 36 36 28 28 30 31 34 38 40 39 38 34 33 31 31 33 37 45 49 50 51 52 52 54 55 57 60 61 60
50 50 50 50 51 50 50 50 47 46 45 46 46 46 46 45 45 43 39 39 40 39 34 36 37 37 37 32 26 30 30 29 29 30 34 34 34 32 35 42 44 46 44 44 45 50 50 51 55 58 59 61 61 60
50 50 50 51 51 50 50 49 48 46 46 45 46 46 46 46 46 39 39 41 42 41 36 28 35 38 36 31 31 30 34 35 34 29 30 32 34 33 31 39 45 46 48 49 49 53 54 56 57 59 61 61 61 60
50 50 50 50 50 50 50 49 47 46 45 46 46 47 46 46 40 34 39 42 44 40 38 35 35 37 36 33 33 31 33 35 32 32 28 28 28 35 35 35 44 46 46 49 53 54 51 53 54 60 61 61 60 60
50 50 50 49 49 50 50 48 48 46 45 46 47 47 47 47 44 40 43 46 44 39 39 35 35 36 39 32 30 34 32 32 32 32 34 28 29 31 23 31 35 43 46 47 49 47 49 50 52 59 59 59 57 57
49 49 49 48 49 50 49 47 47 46 46 46 47 46 41 40 39 42 49 46 43 41 37 36 34 34 41 39 35 36 35 30 34 32 31 31 30 24 24 31 34 40 43 43 46 46 45 48 49 52 55 54 55 55
48 48 48 48 49 49 48 47 46 47 47 45 39 39 37 41 48 45 41 40 40 39 37 34 37 37 39 39 40 39 38 32 31 33 33 30 29 36 44 45 45 45 41 45 43 43 44 44 45 46 47 48 48 48
48 48 48 48 49 48 47 47 46 46 40 38 37 39 42 44 41 39 36 36 36 35 36 37 36 34 38 37 38 40 37 38 33 33 30 30 38 43 45 44 45 46 46 46 47 47 47 46 47 48 49 50 51 50
49 49 49 48 49 48 47 48 46 39 38 38 37 39 39 40 36 34 33 35 36 34 37 36 35 34 39 44 40 40 36 37 32 39 37 35 41 44 46 47 47 46 46 46 46 45 46 47 48 49 49 50 52 52
49 49 49 49 49 48 47 47 46 42 41 40 38 36 37 34 28 31 30 32 33 36 38 39 39 41 43 45 41 37 33 33 40 37 36 41 44 46 46 47 48 47 46 45 46 47 47 47 47 47 47 49 51 52
49 49 50 49 49 48 48 47 47 43 37 37 36 25 32 28 32 33 33 33 36 41 42 41 41 41 43 41 41 34 37 39 36 33 36 45 47 48 46 46 45 45 45 45 46 47 48 48 48 48 48 48 50 50
49 49 49 49 49 48 48 48 46 39 38 37 40 31 33 34 35 36 37 39 42 45 44 43 42 41 40 40 39 37 37 35 37 36 45 48 48 47 45 45 45 45 45 45 46 47 48 48 49 49 49 49 49 49
48 48 47 49 48 48 48 45 39 38 39 38 37 34 36 35 35 37 37 38 42 45 44 43 39 35 34 35 35 34 34 34 37 40 43 44 43 43 43 44 44 45 46 46 46 47 48 48 49 49 49 49 49 49
45 44 48 48 48 47 44 37 36 34 36 37 35 38 36 36 35 38 40 41 45 43 39 38 32 32 37 34 34 38 36 39 41 43 44 43 42 43 44 44 45 46 46 46 47 49 49 51 52 51 51 50 50 50
43 47 48 48 44 41 39 38 37 36 34 35 33 33 37 40 39 41 42 45 42 39 39 35 36 34 33 34 36 39 40 42 42 42 42 42 43 43 45 46 48 49 50 51 52 52 52 50 51 51 51 52 50 50
46 46 47 46 39 36 32 35 38 36 36 35 35 35 39 41 43 45 42 41 40 39 37 34 32 32 36 38 39 40 41 43 41 42 42 43 44 45 49 51 52 52 52 53 53 52 53 53 53 53 52 52 50 51
47 47 45 45 41 40 39 37 40 36 34 36 38 39 39 39 43 40 39 39 35 35 33 34 36 39 39 40 41 41 42 43 42 44 43 45 47 49 51 51 51 52 52 52 52 49 52 52 52 52 51 51 51 50
44 44 43 41 39 38 38 37 36 36 36 36 40 39 38 42 39 37 37 38 35 34 35 39 40 40 41 41 43 43 43 43 46 46 46 47 49 50 51 50 51 51 51 51 50 50 49 50 51 52 51 51 51 50
43 42 38 40 39 41 41 40 37 39 37 38 40 39 39 39 37 37 36 36 35 36 38 39 39 39 41 41 42 43 44 46 47 49 47 48 48 50 50 50 50 50 50 50 50 50 50 50 51 50 50 50 50 50
44 42 42 39 36 32 30 40 36 37 34 35 35 34 34 34 35 36 33 34 36 37 38 39 40 41 41 44 45 45 46 49 49 50 50 50 51 50 50 50 51 50 49 49 50 49 48 46 47 48 48 48 48 49
43 39 37 37 36 24 33 35 36 33 33 32 33 32 32 34 36 34 33 35 35 39 41 43 46 46 46 47 47 48 49 51 50 49 50 50 48 48 49 49 48 48 48 48 47 47 46 46 44 45 45 45 45 45
29 24 29 22 30 33 31 31 30 30 31 33 32 33 36 34 32 34 34 38 41 43 45 46 46 46 46 46 48 49 51 50 48 47 47 48 46 46 46 46 46 46 47 46 45 45 46 46 46 45 45 46 46 43
23 30 26 33 31 30 29 28 27 29 31 32 33 34 35 35 34 33 38 41 43 44 46 47 47 47 47 48 48 48 49 50 48 47 47 47 45 44 43 43 43 44 47 46 46 46 46 46 46 46 46 46 43 43
26 29 37 36 35 34 32 32 34 33 33 32 36 37 37 34 34 38 42 45 45 47 49 49 49 48 48 48 49 49 50 50 50 49 50 50 48 46 45 44 44 45 47 48 48 49 49 48 48 48 47 45 47 45
36 37 31 34 33 34 37 37 37 36 38 40 39 37 36 36 37 41 44 48 50 51 52 51 51 51 50 49 49 49 48 48 47 44 46 46 47 48 48 47 45 39 43 44 48 49 47 43 43 43 43 44 44 45
36 38 37 34 37 34 37 38 39 42 42 41 39 39 39 42 45 47 49 51 51 50 49 47 48 49 48 48 48 49 49 48 42 40 42 42 42 41 41 41 40 40 39 39 37 41 44 43 44 44 44 43 44 44
38 40 38 39 37 37 41 42 42 47 46 46 45 46 46 47 49 50 50 49 48 48 48 48 48 47 46 46 46 47 45 46 46 37 38 39 38 39 40 41 41 41 41 40 38 38 37 41 41 43 42 42 42 41
43 42 40 41 41 43 45 47 48 48 47 47 47 44 44 45 45 47 48 48 48 48 47 46 46 46 46 46 46 46 43 42 43 44 38 37 37 37 38 39 41 42 42 41 39 38 37 39 41 42 42 42 41 39
43 42 43 41 43 46 48 46 46 45 43 42 40 41 41 42 41 43 45 47 46 45 45 46 46 45 47 46 44 45 39 42 43 43 41 41 42 43 44 43 43 42 43 43 43 41 42 43 43 42 40 40 40 39
43 42 41 41 41 40 40 40 39 38 39 39 39 40 41 41 39 41 44 46 45 43 44 45 46 47 46 43 43 41 38 39 37 37 37 38 38 39 40 40 42 43 43 43 42 42 41 41 41 41 41 39 38 38

GFSWCAN_sfc_dewp_042.txt.gz
Dewpoint
52 52 51 50 50 49 49 49 48 45 45 46 46 47 46 46 45 41 40 41 38 32 27 28 26 30 25 28 32 36 40 43 40 35 31 28 25 28 30 37 35 32 29 28 33 29 30 49 46 38 53 56 54 53
52 52 51 51 50 50 50 50 49 45 45 45 46 46 46 45 45 44 31 37 40 37 30 36 31 32 31 29 28 34 42 43 40 40 40 36 31 34 37 27 41 34 43 34 39 39 54 55 58 60 60 58 57 55
52 52 51 51 50 51 50 50 49 46 45 45 45 46 46 45 45 43 37 40 41 36 31 33 33 40 39 38 34 31 35 41 40 46 44 42 39 38 29 33 38 46 48 40 42 50 54 58 59 59 59 60 58 55
53 52 51 51 50 51 50 49 49 47 46 45 45 45 45 45 45 44 41 42 42 38 27 34 37 38 40 38 37 35 35 42 41 39 41 40 36 38 34 36 35 41 47 47 42 52 55 57 58 58 59 61 60 57
52 52 51 51 51 50 50 50 49 48 46 45 45 45 45 46 46 43 45 45 44 40 30 28 33 38 37 36 32 34 38 44 33 29 36 38 37 38 38 37 32 41 44 37 40 55 56 58 59 59 59 59 59 59
52 52 51 51 50 50 50 50 50 48 47 45 45 45 46 46 46 40 40 44 45 42 38 27 33 40 38 37 37 39 37 37 33 30 31 36 40 40 34 35 47 46 49 48 50 56 56 58 59 61 58 57 60 60
52 52 51 50 50 50 50 50 50 48 47 45 45 46 46 47 41 35 38 43 44 44 37 27 31 39 40 38 36 36 38 34 33 31 24 30 36 37 35 32 46 46 48 52 55 55 54 54 58 61 60 59 58 59
51 51 50 50 50 50 50 50 50 48 46 45 45 47 47 46 45 40 45 47 44 39 38 32 33 35 41 32 33 36 33 32 32 31 31 24 31 33 29 39 43 45 48 52 53 51 50 55 57 58 59 57 56 55
50 50 50 50 50 50 50 50 49 47 46 45 46 45 43 43 40 43 49 48 46 42 34 32 31 32 39 36 38 35 37 29 36 26 26 27 21 24 34 41 42 46 48 50 49 52 49 50 53 54 54 53 54 53
48 49 50 50 50 50 50 49 47 47 46 44 39 40 36 42 46 49 46 41 40 37 35 29 34 36 39 36 34 37 36 32 30 31 34 27 24 40 40 45 48 48 47 48 47 49 49 49 50 50 49 48 46 45
49 49 49 49 49 49 49 48 47 46 42 36 38 39 42 44 44 40 37 35 35 30 29 28 28 31 41 39 38 40 37 36 30 32 31 30 27 42 45 48 49 49 48 47 50 50 49 49 49 48 48 47 48 51
47 47 48 48 48 49 49 48 47 40 37 41 41 41 43 40 38 36 34 35 33 27 34 31 30 27 38 47 47 42 38 38 32 38 33 28 45 48 47 47 47 47 47 47 48 47 47 47 48 47 47 48 48 49
47 48 48 48 49 49 49 48 45 43 42 43 42 41 38 39 34 27 24 27 31 35 40 40 34 30 41 49 43 43 36 34 38 38 34 42 47 48 49 47 47 46 45 44 44 44 44 44 44 45 46 46 47 48
47 48 48 49 49 49 48 46 45 43 38 40 39 35 34 30 27 27 29 33 38 41 42 46 38 39 45 45 42 36 37 38 34 32 37 44 49 49 49 47 45 45 45 44 45 45 44 45 46 47 46 47 48 49
48 48 49 49 49 48 48 46 46 40 40 38 38 33 30 32 32 34 36 38 39 42 45 45 45 43 40 38 41 36 34 31 34 39 43 47 52 50 49 46 46 46 46 46 47 46 46 47 49 50 50 51 50 50
48 48 48 49 48 48 48 46 40 39 40 38 37 33 35 35 33 34 37 38 40 43 46 45 39 36 34 37 33 32 31 33 43 44 46 51 50 48 47 47 48 48 49 49 49 50 50 50 51 52 51 50 50 51
48 47 49 49 48 48 46 36 36 36 36 36 34 37 36 37 38 40 43 44 47 43 44 41 35 33 38 35 32 40 40 44 45 49 51 50 48 48 49 49 50 51 51 50 50 51 52 52 52 52 53 54 54 52
46 49 48 47 45 42 36 36 35 35 32 33 34 34 38 40 41 46 45 46 45 43 47 40 40 37 35 32 37 44 46 45 46 45 44 47 50 50 50 50 51 52 52 52 53 54 54 54 54 54 54 53 53 53
47 48 47 45 41 32 31 34 39 33 32 35 36 36 38 40 45 47 43 45 44 44 42 39 35 33 35 42 42 45 46 48 48 45 45 49 51 50 51 53 52 53 53 53 54 54 54 53 53 54 54 53 52 52
47 46 45 42 42 37 32 35 41 38 36 38 40 40 45 48 46 42 42 41 40 39 38 36 35 40 43 44 46 47 46 47 45 42 41 46 50 52 52 52 54 54 54 53 53 49 53 53 53 53 52 52 51 51
42 41 41 39 40 41 41 38 35 38 40 43 44 44 45 47 43 41 40 40 38 39 37 40 44 44 49 49 49 49 49 48 45 45 44 46 51 52 51 52 54 54 52 52 52 51 50 52 53 52 51 51 52 53
39 41 37 36 39 41 41 42 42 42 43 42 45 43 43 43 39 38 40 36 36 39 41 42 44 45 46 47 48 50 49 50 49 48 47 49 49 50 52 52 52 51 51 52 53 52 52 52 51 52 50 50 47 47
42 43 43 40 38 38 39 42 40 40 39 39 39 38 39 38 40 41 37 40 40 44 45 45 47 48 47 49 50 50 50 50 48 51 52 52 52 53 53 52 52 51 50 52 50 46 47 46 47 47 48 46 43 42
43 40 38 37 38 34 36 38 39 37 38 37 37 35 37 38 39 38 38 37 39 42 44 47 46 47 49 49 49 50 52 52 52 51 52 51 50 50 52 52 49 45 45 44 43 43 43 44 43 44 42 40 40 39
36 34 35 34 35 34 33 33 34 34 34 36 34 35 37 41 37 38 40 38 41 41 44 48 49 50 48 49 50 50 52 52 52 50 51 50 48 48 47 41 41 41 40 40 40 40 41 42 41 40 40 40 40 39
33 34 35 35 37 34 35 31 32 31 32 32 34 39 41 38 34 36 39 42 44 46 47 50 49 48 50 50 50 50 52 53 49 47 46 43 42 40 39 39 38 41 44 43 41 40 40 39 40 40 39 42 41 40
32 33 37 40 39 37 36 37 36 35 29 31 35 36 38 33 36 39 43 45 46 48 52 53 52 50 49 50 52 51 50 49 45 44 45 44 42 42 41 41 41 41 43 45 43 43 44 42 42 40 38 39 40 40
39 39 34 36 38 39 33 33 32 32 34 37 37 35 34 35 38 44 46 50 51 51 53 52 53 52 52 51 50 48 48 48 49 48 45 44 45 45 47 46 47 39 45 45 43 43 43 43 42 41 38 38 40 41
39 41 38 34 33 34 34 35 35 40 40 38 38 37 39 42 45 47 50 52 53 53 51 51 51 51 49 49 49 48 45 43 42 42 43 42 39 40 44 41 39 40 40 40 38 41 44 42 41 40 39 40 41 42
39 39 37 34 33 34 38 38 40 46 48 47 45 46 46 49 50 52 51 51 51 51 50 48 47 50 44 42 41 42 43 43 41 36 35 35 36 36 38 38 38 37 39 39 38 40 40 41 39 40 39 38 38 39
42 41 39 40 39 42 43 44 44 46 48 47 47 45 46 48 50 52 52 52 49 48 49 45 44 44 44 43 42 40 38 40 41 42 40 36 35 37 38 39 39 40 40 40 39 38 38 38 38 37 38 40 41 39
42 40 40 40 43 47 48 47 46 46 46 46 45 47 47 45 43 46 48 48 47 45 44 44 44 44 45 44 45 45 42 43 44 43 44 40 39 41 40 39 39 40 40 39 39 39 39 39 39 39 39 40 39 38
45 45 45 44 43 43 45 45 44 44 42 40 40 40 39 39 39 41 44 45 45 43 43 45 45 43 47 48 46 44 41 43 42 37 37 37 37 39 40 41 43 44 42 41 40 38 39 40 40 40 40 38 37 36

GFSWCAN_sfc_dewp_045.txt.gz
Dewpoint
52 52 52 51 50 50 50 49 49 46 45 45 46 47 47 46 46 44 39 40 36 29 26 26 25 30 28 30 32 38 36 41 37 34 25 24 25 25 26 39 39 33 33 28 30 33 35 43 43 40 52 52 46 48
52 52 52 51 50 50 50 50 49 47 45 45 45 46 46 46 46 45 32 36 35 32 28 29 26 26 28 29 30 36 43 45 41 38 37 38 33 33 37 28 39 34 43 42 41 46 54 55 59 59 58 55 52 53
53 52 52 51 51 50 51 50 50 48 46 45 45 46 46 46 46 44 36 40 38 34 27 24 31 37 34 34 31 34 37 41 44 45 41 40 44 39 30 28 32 42 43 35 44 46 53 54 57 58 58 57 54 55
53 53 52 51 51 50 51 50 49 49 47 45 45 45 46 46 46 45 39 41 40 34 26 33 32 34 36 36 36 35 36 40 39 36 37 38 37 38 36 37 34 38 36 39 36 48 50 55 57 57 59 60 55 55
53 52 52 51 51 51 51 50 49 49 47 46 45 45 45 46 47 43 42 43 42 39 31 28 30 31 34 36 34 37 41 41 33 33 34 36 39 39 35 32 29 33 44 37 49 54 53 59 60 58 57 57 57 57
53 52 52 51 51 51 50 50 50 49 48 46 45 45 45 46 47 41 40 44 44 42 36 25 34 35 35 36 36 39 38 36 32 31 36 37 38 40 35 33 45 42 43 44 50 53 56 58 59 58 57 57 58 58
53 52 52 51 51 50 50 50 50 49 48 46 44 45 46 47 40 37 39 43 42 43 36 24 25 33 35 35 33 32 37 32 29 32 30 37 38 39 35 34 45 45 46 52 54 54 53 55 57 60 57 57 57 57
52 52 52 51 50 50 50 51 50 50 48 45 45 46 47 47 45 37 44 46 45 39 34 28 28 30 36 30 29 33 27 29 30 26 32 36 37 37 35 45 46 55 50 50 49 49 49 55 58 57 58 57 57 57
52 52 51 50 50 50 50 50 50 49 46 45 45 46 43 41 36 43 48 48 46 42 34 25 23 30 36 30 34 34 31 27 29 26 24 30 34 31 35 39 42 46 49 51 49 48 44 45 55 56 54 52 52 54
52 51 50 50 50 50 50 50 50 48 46 45 40 37 33 39 50 49 45 40 39 36 33 28 24 29 29 29 30 30 32 27 27 24 27 27 23 33 34 41 44 43 44 47 48 45 44 43 47 48 52 48 51 49
50 50 49 49 50 50 50 50 48 47 44 35 33 36 42 45 42 38 36 33 32 29 26 23 23 25 33 33 36 37 34 35 27 28 28 25 22 37 44 44 44 43 42 45 50 49 47 49 47 47 46 45 46 48
48 49 49 49 49 50 50 49 48 42 32 38 41 41 40 37 36 34 32 30 29 26 28 24 24 25 36 39 38 39 34 34 30 38 31 25 50 47 45 44 44 45 44 46 47 46 47 48 48 47 47 47 48 49
48 48 48 48 49 49 49 48 46 43 43 42 41 36 36 36 37 28 26 25 27 31 35 34 32 27 35 37 36 35 34 30 34 33 29 45 50 47 46 45 45 45 44 44 44 44 43 44 45 45 47 47 48 48
48 48 48 48 49 49 48 47 44 42 41 35 35 36 32 28 25 22 22 26 36 37 35 37 35 30 34 41 37 36 33 34 36 29 33 46 48 49 48 46 45 45 46 45 45 45 45 45 46 47 47 48 49 50
48 48 48 49 49 48 47 45 45 42 40 35 34 33 26 28 27 27 30 35 36 39 40 41 38 35 34 34 35 33 35 32 31 38 48 54 54 52 49 48 48 47 47 47 47 47 46 47 48 49 50 50 50 50
47 48 46 49 49 48 47 45 41 41 39 37 35 30 31 28 26 28 29 32 35 37 42 39 34 32 32 31 30 31 28 32 42 49 53 53 52 50 49 48 47 48 50 50 50 50 50 50 50 51 50 50 50 51
48 46 49 49 48 47 47 39 38 37 34 34 32 33 30 32 31 31 33 36 42 44 45 41 34 31 33 33 29 35 39 44 49 52 55 54 52 50 50 49 50 51 51 51 51 52 52 52 51 52 53 54 53 53
45 49 49 48 45 42 37 38 34 32 31 31 30 31 32 36 36 37 37 40 44 46 45 41 39 36 33 30 39 38 43 45 45 48 46 49 50 51 49 51 51 52 52 52 54 53 54 54 53 53 53 53 52 53
48 48 47 46 41 34 33 35 37 30 29 29 33 34 34 35 41 43 40 43 43 44 41 36 36 35 39 38 39 46 48 51 52 48 46 50 51 50 51 52 53 53 53 54 55 54 54 54 52 51 51 51 50 50
47 46 46 45 39 33 28 30 38 37 31 31 32 32 36 45 43 40 38 39 39 39 36 35 36 44 39 40 43 46 46 46 43 40 40 44 47 50 51 53 54 55 55 54 55 50 55 52 52 52 50 50 50 49
43 41 40 40 41 42 38 31 34 36 37 35 35 38 42 48 47 38 39 39 38 37 35 37 39 43 49 48 45 45 47 47 43 42 41 39 45 50 52 53 53 56 53 53 53 52 50 54 55 54 50 50 49 51
36 41 37 37 39 41 41 41 43 40 42 44 42 42 46 46 44 40 40 36 35 37 39 39 41 44 45 48 47 49 49 50 49 45 44 47 51 52 52 52 53 52 52 54 54 53 51 52 51 50 49 46 45 43
41 42 43 40 38 39 39 44 42 41 40 41 41 39 39 39 38 39 35 37 38 43 43 44 47 49 47 48 50 50 51 50 46 45 52 53 53 53 53 53 53 52 52 53 53 49 46 45 45 47 45 45 46 41
43 40 37 37 37 36 36 39 41 41 40 38 37 35 36 36 38 35 37 36 36 41 41 47 43 42 46 50 48 50 53 54 53 54 54 52 52 52 53 53 52 53 51 45 45 40 42 44 43 43 39 38 37 37
37 35 37 35 35 32 32 31 32 33 33 34 32 32 35 37 35 39 42 34 37 39 41 45 45 48 47 47 52 52 53 53 52 50 52 51 51 50 51 53 46 41 39 38 39 39 41 41 43 39 38 37 39 37
33 33 36 32 34 31 33 29 30 29 30 31 32 36 37 34 33 37 36 40 41 43 45 50 51 48 51 51 50 51 53 54 51 45 45 45 46 44 40 39 37 38 40 39 40 39 38 38 38 37 39 40 38 39
33 32 38 38 37 34 34 34 33 33 29 29 33 33 35 31 36 35 40 44 46 52 53 54 54 51 51 52 52 52 55 52 48 44 47 47 44 44 42 42 45 40 40 41 42 41 39 40 37 36 37 39 37 37
37 37 32 34 35 35 31 31 30 29 29 31 33 30 31 32 37 44 47 51 51 50 54 52 54 53 53 52 55 49 47 46 46 46 42 39 39 41 43 41 40 39 42 41 40 41 43 41 40 39 38 37 38 40
37 37 34 32 31 31 32 32 34 37 37 37 37 36 37 41 43 45 47 52 53 53 52 52 52 51 49 52 48 43 41 41 41 41 44 45 41 40 39 40 36 37 38 38 40 38 41 41 41 38 39 38 38 38
38 38 36 33 32 33 37 36 40 44 45 46 43 44 44 48 51 53 52 52 52 51 48 45 44 45 43 41 41 43 43 42 40 37 36 38 39 41 37 35 36 35 36 37 37 38 40 39 38 38 39 38 39 40
43 40 39 40 39 41 45 43 44 46 47 47 47 45 45 48 51 53 53 52 49 46 46 45 45 45 45 41 41 47 43 40 39 37 38 34 32 35 36 37 37 37 38 39 38 37 38 37 37 38 37 39 39 38
42 40 40 39 42 46 48 47 46 46 46 46 46 47 48 47 44 46 48 51 48 46 48 48 51 48 41 41 40 43 43 40 39 39 39 36 37 38 37 37 36 38 38 37 38 37 38 39 37 38 38 38 38 38
44 44 44 44 43 43 45 45 44 43 43 42 42 39 37 37 39 42 46 47 46 43 42 44 42 41 45 46 45 43 42 44 43 37 37 37 37 38 39 37 40 41 39 38 37 37 36 37 38 39 39 38 38 37

GFSWCAN_sfc_dewp_048.txt.gz
Dewpoint
52 52 52 51 51 51 50 49 49 49 46 46 45 47 47 47 47 43 41 40 37 33 28 26 24 31 30 30 31 36 37 36 34 35 28 26 27 30 32 34 37 36 37 33 36 34 33 56 44 45 54 55 51 50
52 52 52 52 51 51 50 50 50 49 47 46 45 46 47 47 46 45 38 34 34 32 30 29 24 23 25 29 30 35 38 44 42 40 41 39 32 39 43 35 40 37 50 48 43 44 53 55 59 60 60 61 56 55
52 52 52 52 52 51 51 50 50 49 48 46 45 45 46 46 47 45 40 40 37 35 29 24 26 32 28 32 29 34 38 42 43 44 41 38 44 43 41 39 42 45 51 50 52 55 52 53 59 59 59 57 53 53
52 52 52 52 52 51 51 51 50 49 48 47 45 45 46 46 47 46 42 40 40 36 29 31 34 31 31 32 33 34 37 42 43 38 35 34 35 44 46 44 43 41 46 46 49 53 51 58 57 59 59 59 52 53
52 52 52 52 51 51 51 51 50 49 49 47 46 46 45 46 47 43 43 41 40 39 34 31 30 29 30 35 33 34 39 42 37 34 32 30 37 40 38 46 46 51 50 45 45 54 55 59 62 57 56 54 54 54
52 52 52 52 51 51 51 51 50 49 49 48 46 45 45 46 47 41 39 41 42 41 37 26 33 34 32 34 33 37 38 36 31 33 32 35 42 39 35 37 47 53 55 54 55 55 58 58 58 56 55 55 55 56
52 52 52 52 51 51 50 50 50 50 49 48 46 45 46 47 40 38 40 42 43 44 38 26 22 32 33 33 31 31 36 31 31 29 34 34 39 39 37 37 46 50 48 57 58 53 52 53 56 55 59 60 59 60
52 52 52 52 51 51 50 50 50 50 49 47 46 46 47 47 45 37 40 44 45 42 34 28 30 33 35 27 27 30 29 28 30 29 29 33 38 41 38 41 43 46 50 56 57 52 51 56 60 59 59 57 55 54
52 52 52 51 51 50 50 50 51 50 48 46 45 46 42 40 36 44 47 48 45 43 36 22 23 35 35 27 30 34 33 26 28 26 26 28 32 34 39 44 41 50 50 54 55 49 45 48 58 57 55 58 58 54
52 52 52 51 51 50 50 50 50 49 47 45 41 37 36 41 50 48 42 38 36 35 34 30 24 26 33 27 26 28 31 28 22 24 26 23 25 35 38 41 44 44 42 45 51 51 45 46 56 52 56 58 52 49
52 52 51 50 50 50 50 50 50 48 44 35 35 38 43 47 39 38 35 33 32 28 27 23 23 23 32 31 40 43 38 42 31 25 24 25 25 31 44 47 43 39 39 39 46 50 47 51 53 54 55 55 50 50
52 51 50 50 49 49 50 50 48 42 32 40 42 42 35 35 36 32 32 30 29 26 26 22 22 24 37 38 39 45 40 33 32 45 34 30 50 45 44 43 42 43 43 45 46 46 47 47 47 53 55 48 48 49
49 50 49 49 50 50 50 49 47 45 44 41 40 34 34 35 35 29 26 26 26 29 32 28 31 25 30 34 31 38 39 34 35 32 31 46 53 47 46 43 43 42 41 41 42 43 43 43 44 46 47 47 48 48
48 48 48 48 49 49 49 48 47 43 41 36 34 36 32 28 25 22 23 24 29 30 31 31 30 26 28 33 33 30 31 34 37 35 34 49 51 50 48 46 46 48 45 43 43 44 44 45 46 47 47 49 49 50
47 46 46 46 47 49 49 47 45 41 41 34 30 31 26 28 22 21 31 36 36 34 36 33 36 29 33 32 37 41 36 32 34 40 47 53 55 51 50 49 47 50 50 49 49 47 47 48 49 49 50 50 50 51
47 46 45 48 48 48 47 44 40 43 38 36 32 28 24 25 25 26 28 30 32 32 34 35 35 30 37 36 28 31 26 35 43 49 52 54 53 52 51 51 51 51 50 49 50 50 50 50 50 50 50 53 52 52
47 46 48 49 48 47 46 39 40 37 33 32 30 32 28 29 30 27 29 34 35 39 36 37 35 33 32 35 31 34 39 46 44 49 52 53 53 53 50 50 50 50 50 52 51 52 52 53 53 53 53 54 53 55
47 49 49 48 46 42 40 40 33 30 29 30 29 29 33 37 38 38 36 42 39 38 39 38 41 37 33 28 38 45 47 52 53 50 55 55 52 51 49 50 51 50 51 51 54 53 54 52 51 50 53 53 55 52
48 48 48 46 43 35 33 35 36 28 27 27 31 31 32 33 38 39 39 40 41 43 42 40 36 36 40 44 47 50 47 48 49 49 49 52 51 50 50 51 52 54 53 53 52 53 57 54 51 50 49 50 50 48
48 46 46 46 43 35 26 28 38 36 29 28 30 30 32 36 38 36 37 38 36 37 36 36 35 47 48 46 47 44 44 45 42 40 51 45 50 48 51 51 51 55 56 53 54 48 54 50 53 51 49 49 49 47
45 44 44 41 41 41 37 29 31 36 36 31 30 34 35 39 38 44 39 37 35 37 36 37 41 49 52 47 45 46 50 47 44 44 43 41 45 45 48 51 53 54 52 51 53 49 52 53 54 51 50 48 48 48
38 44 37 40 40 40 39 38 39 39 37 36 37 37 42 43 45 46 39 35 34 36 39 44 44 45 48 51 50 51 51 51 50 45 44 44 46 49 53 52 54 52 52 54 55 53 53 52 48 48 49 44 45 44
40 41 39 39 40 40 37 39 39 39 39 37 39 38 43 43 40 43 35 34 39 45 47 46 50 50 48 48 48 50 51 51 47 45 50 50 53 53 54 54 53 53 53 54 56 48 44 43 44 44 46 44 43 42
42 41 38 37 38 36 37 40 41 42 42 39 38 36 39 38 37 34 36 36 37 41 41 48 43 41 44 51 46 52 52 53 53 54 54 53 52 52 52 53 52 53 51 43 39 42 44 45 43 44 41 37 37 36
38 35 36 36 36 33 33 32 36 36 35 36 35 34 34 35 32 41 41 35 35 38 40 44 42 44 42 48 50 51 53 53 52 51 52 52 52 52 53 54 51 48 44 41 41 41 42 42 41 39 40 39 37 36
34 33 35 32 34 33 35 29 30 33 34 30 30 34 34 32 32 35 35 41 40 42 42 47 50 52 49 48 50 52 53 54 52 44 49 50 49 47 43 40 41 41 44 44 40 41 43 42 36 37 39 39 37 38
34 34 37 36 34 35 32 30 31 30 28 28 30 31 32 29 32 34 42 46 48 49 51 50 50 53 50 50 52 53 55 51 55 48 46 44 45 43 40 39 41 44 44 38 41 39 38 39 38 36 36 40 38 36
35 38 33 34 33 32 29 29 29 27 28 29 30 28 29 30 35 46 49 47 48 47 50 48 50 50 51 52 53 51 50 51 51 49 46 45 44 43 45 43 43 38 42 40 40 40 41 41 41 39 37 37 39 38
37 35 34 32 31 30 30 29 31 33 36 35 35 36 41 43 43 44 45 47 48 53 51 51 52 52 51 52 53 51 49 46 43 44 41 38 39 42 44 41 36 35 37 37 38 38 40 39 41 39 38 37 39 40
36 35 34 35 31 33 37 37 38 44 43 43 41 42 42 42 46 49 48 47 48 50 47 45 45 46 47 44 43 43 41 42 41 41 41 39 39 41 40 39 37 35 37 39 38 38 39 39 38 39 40 41 41 43
42 40 39 38 38 39 45 48 46 46 46 48 48 46 45 48 52 52 51 50 48 46 45 45 44 44 44 44 44 43 42 41 41 39 39 37 38 39 41 37 36 37 37 37 37 37 38 39 39 39 39 41 42 39
43 41 40 39 42 46 48 47 47 46 46 46 46 48 48 48 45 45 47 47 45 44 47 50 49 44 45 47 46 44 41 41 47 42 42 41 40 41 37 35 36 38 39 37 36 37 38 39 38 37 37 38 41 40
44 44 43 44 44 43 44 45 44 45 46 43 42 41 39 39 40 42 46 47 47 48 50 50 51 49 48 42 43 45 42 44 42 37 37 37 37 38 40 39 42 42 37 37 37 36 36 37 38 39 39 38 38 38